Wetterdaten: Freitag, 28.07.2017
Datum Zeit Temp. Aussen Temp. o. S. +5cm Feuchte Auss BlattFeu 1 Luftdruck Regen Sonnenschein Regendauer Solar Windben Empfang
28.07.2017 00:00 16,3 C 15,0 C 13,9 C 83 % 0 lf 1007,1 hPa 0,0 l/m 0 min 0 min 0 W/m 0,0 km/h (0 Bft) 100,00 %
28.07.2017 00:02 16,2 C 15,0 C 13,9 C 83 % 0 lf 1007,1 hPa 0,0 l/m 0 min 0 min 0 W/m 0,0 km/h (0 Bft) 100,00 %
28.07.2017 00:04 16,2 C 15,0 C 13,9 C 84 % 0 lf 1007,1 hPa 0,0 l/m 0 min 0 min 0 W/m 0,0 km/h (0 Bft) 100,00 %
28.07.2017 00:06 16,2 C 15,0 C 13,9 C 84 % 0 lf 1007,2 hPa 0,0 l/m 0 min 0 min 0 W/m 0,0 km/h (0 Bft) 100,00 %
28.07.2017 00:10 16,2 C 15,0 C 14,4 C 84 % 0 lf 1007,2 hPa 0,0 l/m 0 min 0 min 0 W/m 0,0 km/h (0 Bft) 98,96 %
28.07.2017 00:12 16,2 C 15,0 C 14,4 C 85 % 0 lf 1007,2 hPa 0,0 l/m 0 min 0 min 0 W/m 6,3 km/h (2 Bft) 97,87 %
28.07.2017 00:14 16,2 C 15,0 C 14,4 C 85 % 0 lf 1007,2 hPa 0,0 l/m 0 min 0 min 0 W/m 8,4 km/h (2 Bft) 97,87 %
28.07.2017 00:16 16,1 C 15,6 C 14,4 C 85 % 0 lf 1007,2 hPa 0,0 l/m 0 min 0 min 0 W/m 10,5 km/h (2 Bft) 97,83 %
28.07.2017 00:18 16,1 C 15,6 C 14,4 C 85 % 0 lf 1007,2 hPa 0,0 l/m 0 min 0 min 0 W/m 4,2 km/h (1 Bft) 97,87 %
28.07.2017 00:20 16,1 C 15,6 C 15,0 C 85 % 0 lf 1007,3 hPa 0,0 l/m 0 min 0 min 0 W/m 4,2 km/h (1 Bft) 95,74 %
28.07.2017 00:22 16,1 C 15,6 C 15,0 C 85 % 0 lf 1007,2 hPa 0,0 l/m 0 min 0 min 0 W/m 6,3 km/h (2 Bft) 100,00 %
28.07.2017 00:24 16,0 C 16,1 C 15,0 C 86 % 0 lf 1007,2 hPa 0,0 l/m 0 min 0 min 0 W/m 8,4 km/h (2 Bft) 100,00 %
28.07.2017 00:26 16,0 C 16,1 C 15,0 C 86 % 0 lf 1007,3 hPa 0,0 l/m 0 min 0 min 0 W/m 10,5 km/h (2 Bft) 97,87 %
28.07.2017 00:28 16,0 C 16,1 C 15,0 C 86 % 0 lf 1007,3 hPa 0,0 l/m 0 min 0 min 0 W/m 6,3 km/h (2 Bft) 100,00 %
28.07.2017 00:30 16,0 C 16,1 C 15,0 C 86 % 0 lf 1007,3 hPa 0,0 l/m 0 min 0 min 0 W/m 10,5 km/h (2 Bft) 97,87 %
28.07.2017 00:32 16,0 C 16,1 C 15,0 C 86 % 0 lf 1007,3 hPa 0,0 l/m 0 min 0 min 0 W/m 6,3 km/h (2 Bft) 100,00 %
28.07.2017 00:34 16,0 C 16,1 C 15,0 C 86 % 0 lf 1007,3 hPa 0,0 l/m 0 min 0 min 0 W/m 10,5 km/h (2 Bft) 97,87 %
28.07.2017 00:36 16,0 C 16,1 C 15,0 C 86 % 0 lf 1007,5 hPa 0,0 l/m 0 min 0 min 0 W/m 6,3 km/h (2 Bft) 93,62 %
28.07.2017 00:38 16,0 C 16,1 C 15,0 C 86 % 0 lf 1007,5 hPa 0,0 l/m 0 min 0 min 0 W/m 10,5 km/h (2 Bft) 97,87 %
28.07.2017 00:40 16,0 C 16,1 C 15,0 C 86 % 0 lf 1007,4 hPa 0,0 l/m 0 min 0 min 0 W/m 8,4 km/h (2 Bft) 95,65 %
28.07.2017 00:42 16,0 C 16,1 C 15,0 C 86 % 0 lf 1007,5 hPa 0,0 l/m 0 min 0 min 0 W/m 6,3 km/h (2 Bft) 97,87 %
28.07.2017 00:44 16,0 C 16,1 C 15,0 C 86 % 0 lf 1007,5 hPa 0,0 l/m 0 min 0 min 0 W/m 6,3 km/h (2 Bft) 95,74 %
28.07.2017 00:46 16,1 C 15,6 C 15,0 C 86 % 0 lf 1007,6 hPa 0,0 l/m 0 min 0 min 0 W/m 4,2 km/h (1 Bft) 97,87 %
28.07.2017 00:48 16,1 C 15,6 C 15,0 C 86 % 0 lf 1007,5 hPa 0,0 l/m 0 min 0 min 0 W/m 4,2 km/h (1 Bft) 95,74 %
28.07.2017 00:50 16,1 C 15,6 C 15,0 C 86 % 0 lf 1007,6 hPa 0,0 l/m 0 min 0 min 0 W/m 8,4 km/h (2 Bft) 93,62 %
28.07.2017 00:52 16,1 C 15,6 C 15,0 C 86 % 0 lf 1007,5 hPa 0,0 l/m 0 min 0 min 0 W/m 10,5 km/h (2 Bft) 93,48 %
28.07.2017 00:54 16,1 C 15,6 C 15,0 C 86 % 0 lf 1007,6 hPa 0,0 l/m 0 min 0 min 0 W/m 10,5 km/h (2 Bft) 95,74 %
28.07.2017 00:56 16,1 C 15,6 C 15,0 C 86 % 0 lf 1007,7 hPa 0,0 l/m 0 min 0 min 0 W/m 6,3 km/h (2 Bft) 95,74 %
28.07.2017 00:58 16,1 C 15,6 C 14,4 C 86 % 0 lf 1007,7 hPa 0,0 l/m 0 min 0 min 0 W/m 8,4 km/h (2 Bft) 93,62 %
28.07.2017 01:00 16,1 C 15,6 C 14,4 C 86 % 0 lf 1007,6 hPa 0,0 l/m 0 min 0 min 0 W/m 4,2 km/h (1 Bft) 93,62 %
28.07.2017 01:02 16,1 C 15,6 C 14,4 C 86 % 0 lf 1007,6 hPa 0,0 l/m 0 min 0 min 0 W/m 10,5 km/h (2 Bft) 93,62 %
28.07.2017 01:04 16,1 C 15,6 C 14,4 C 86 % 0 lf 1007,6 hPa 0,0 l/m 0 min 0 min 0 W/m 8,4 km/h (2 Bft) 95,65 %
28.07.2017 01:06 16,1 C 15,6 C 14,4 C 86 % 0 lf 1007,6 hPa 0,0 l/m 0 min 0 min 0 W/m 6,3 km/h (2 Bft) 93,62 %
28.07.2017 01:08 16,1 C 15,6 C 13,9 C 86 % 0 lf 1007,6 hPa 0,0 l/m 0 min 0 min 0 W/m 4,2 km/h (1 Bft) 95,74 %
28.07.2017 01:10 16,1 C 15,0 C 13,9 C 86 % 0 lf 1007,6 hPa 0,0 l/m 0 min 0 min 0 W/m 6,3 km/h (2 Bft) 93,62 %
28.07.2017 01:12 16,1 C 15,0 C 13,9 C 86 % 0 lf 1007,6 hPa 0,0 l/m 0 min 0 min 0 W/m 6,3 km/h (2 Bft) 93,62 %
28.07.2017 01:14 16,1 C 15,0 C 13,9 C 86 % 0 lf 1007,7 hPa 0,0 l/m 0 min 0 min 0 W/m 8,4 km/h (2 Bft) 93,62 %
28.07.2017 01:16 16,1 C 15,0 C 13,9 C 86 % 0 lf 1007,7 hPa 0,0 l/m 0 min 0 min 0 W/m 6,3 km/h (2 Bft) 95,65 %
28.07.2017 01:18 16,1 C 15,0 C 13,9 C 86 % 0 lf 1007,7 hPa 0,0 l/m 0 min 0 min 0 W/m 8,4 km/h (2 Bft) 89,36 %
28.07.2017 01:20 16,0 C 15,0 C 13,9 C 86 % 0 lf 1007,7 hPa 0,0 l/m 0 min 0 min 0 W/m 6,3 km/h (2 Bft) 89,36 %
28.07.2017 01:22 16,0 C 15,0 C 13,9 C 86 % 0 lf 1007,7 hPa 0,0 l/m 0 min 0 min 0 W/m 6,3 km/h (2 Bft) 93,62 %
28.07.2017 01:24 16,0 C 15,0 C 13,9 C 86 % 0 lf 1007,7 hPa 0,0 l/m 0 min 0 min 0 W/m 8,4 km/h (2 Bft) 93,62 %
28.07.2017 01:26 15,9 C 15,0 C 13,9 C 86 % 0 lf 1007,7 hPa 0,0 l/m 0 min 0 min 0 W/m 8,4 km/h (2 Bft) 89,13 %
28.07.2017 01:28 15,9 C 14,4 C 13,9 C 86 % 0 lf 1007,8 hPa 0,0 l/m 0 min 0 min 0 W/m 6,3 km/h (2 Bft) 93,62 %
28.07.2017 01:30 15,9 C 14,4 C 13,9 C 86 % 0 lf 1007,8 hPa 0,0 l/m 0 min 0 min 0 W/m 8,4 km/h (2 Bft) 95,74 %
28.07.2017 01:32 15,9 C 14,4 C 13,9 C 86 % 0 lf 1007,7 hPa 0,0 l/m 0 min 0 min 0 W/m 8,4 km/h (2 Bft) 93,62 %
28.07.2017 01:34 15,9 C 14,4 C 13,3 C 86 % 0 lf 1007,8 hPa 0,0 l/m 0 min 0 min 0 W/m 6,3 km/h (2 Bft) 89,36 %
28.07.2017 01:36 15,8 C 14,4 C 13,3 C 86 % 0 lf 1007,8 hPa 0,0 l/m 0 min 0 min 0 W/m 8,4 km/h (2 Bft) 95,74 %
28.07.2017 01:38 15,8 C 14,4 C 13,3 C 86 % 0 lf 1007,8 hPa 0,0 l/m 0 min 0 min 0 W/m 8,4 km/h (2 Bft) 95,65 %
28.07.2017 01:40 15,8 C 14,4 C 13,3 C 86 % 0 lf 1007,8 hPa 0,0 l/m 0 min 0 min 0 W/m 8,4 km/h (2 Bft) 93,62 %
28.07.2017 01:42 15,8 C 14,4 C 13,3 C 86 % 0 lf 1007,8 hPa 0,0 l/m 0 min 0 min 0 W/m 12,6 km/h (3 Bft) 97,87 %
28.07.2017 01:44 15,7 C 14,4 C 13,3 C 86 % 0 lf 1007,8 hPa 0,0 l/m 0 min 0 min 0 W/m 10,5 km/h (2 Bft) 97,87 %
28.07.2017 01:46 15,7 C 15,0 C 13,9 C 86 % 0 lf 1007,9 hPa 0,0 l/m 0 min 0 min 0 W/m 12,6 km/h (3 Bft) 97,87 %
28.07.2017 01:48 15,7 C 14,4 C 13,9 C 86 % 0 lf 1007,9 hPa 0,0 l/m 0 min 0 min 0 W/m 10,5 km/h (2 Bft) 97,87 %
28.07.2017 01:50 15,6 C 15,0 C 13,9 C 86 % 0 lf 1007,9 hPa 0,0 l/m 0 min 0 min 0 W/m 8,4 km/h (2 Bft) 100,00 %
28.07.2017 01:52 15,6 C 15,0 C 13,9 C 86 % 0 lf 1008,0 hPa 0,0 l/m 0 min 0 min 2 W/m 12,6 km/h (3 Bft) 97,87 %
28.07.2017 01:54 15,6 C 15,0 C 13,9 C 86 % 0 lf 1008,0 hPa 0,0 l/m 0 min 0 min 1 W/m 8,4 km/h (2 Bft) 97,87 %
28.07.2017 01:56 15,6 C 15,0 C 13,9 C 86 % 0 lf 1008,0 hPa 0,0 l/m 0 min 0 min 0 W/m 12,6 km/h (3 Bft) 100,00 %
28.07.2017 01:58 15,6 C 15,0 C 13,9 C 86 % 0 lf 1008,1 hPa 0,0 l/m 0 min 0 min 0 W/m 16,7 km/h (3 Bft) 100,00 %
28.07.2017 02:00 15,5 C 15,0 C 13,9 C 86 % 0 lf 1008,1 hPa 0,0 l/m 0 min 0 min 2 W/m 14,6 km/h (3 Bft) 97,87 %
28.07.2017 02:02 15,5 C 15,0 C 13,9 C 86 % 0 lf 1008,1 hPa 0,0 l/m 0 min 0 min 0 W/m 14,6 km/h (3 Bft) 91,30 %
28.07.2017 02:04 15,5 C 15,0 C 13,9 C 86 % 0 lf 1008,1 hPa 0,0 l/m 0 min 0 min 0 W/m 18,8 km/h (3 Bft) 95,74 %
28.07.2017 02:06 15,4 C 15,0 C 13,9 C 86 % 0 lf 1008,1 hPa 0,0 l/m 0 min 0 min 0 W/m 12,6 km/h (3 Bft) 93,62 %
28.07.2017 02:08 15,4 C 15,0 C 13,9 C 86 % 0 lf 1008,1 hPa 0,0 l/m 0 min 0 min 0 W/m 12,6 km/h (3 Bft) 97,87 %
28.07.2017 02:10 15,4 C 15,0 C 13,3 C 86 % 0 lf 1008,1 hPa 0,0 l/m 0 min 0 min 0 W/m 14,6 km/h (3 Bft) 95,74 %
28.07.2017 02:12 15,4 C 14,4 C 13,3 C 86 % 0 lf 1008,1 hPa 0,0 l/m 0 min 0 min 0 W/m 12,6 km/h (3 Bft) 97,87 %
28.07.2017 02:14 15,4 C 14,4 C 13,3 C 86 % 0 lf 1008,0 hPa 0,0 l/m 0 min 0 min 0 W/m 10,5 km/h (2 Bft) 97,83 %
28.07.2017 02:16 15,4 C 14,4 C 13,3 C 86 % 0 lf 1008,0 hPa 0,0 l/m 0 min 0 min 0 W/m 10,5 km/h (2 Bft) 95,74 %
28.07.2017 02:18 15,3 C 14,4 C 13,3 C 86 % 0 lf 1008,0 hPa 0,0 l/m 0 min 0 min 0 W/m 8,4 km/h (2 Bft) 93,62 %
28.07.2017 02:20 15,3 C 14,4 C 13,3 C 85 % 0 lf 1008,0 hPa 0,0 l/m 0 min 0 min 0 W/m 8,4 km/h (2 Bft) 95,74 %
28.07.2017 02:22 15,3 C 14,4 C 13,3 C 85 % 0 lf 1008,0 hPa 0,0 l/m 0 min 0 min 0 W/m 14,6 km/h (3 Bft) 97,87 %
28.07.2017 02:24 15,3 C 14,4 C 13,3 C 85 % 0 lf 1008,0 hPa 0,0 l/m 0 min 0 min 2 W/m 10,5 km/h (2 Bft) 95,65 %
28.07.2017 02:26 15,3 C 14,4 C 12,8 C 85 % 0 lf 1008,0 hPa 0,0 l/m 0 min 0 min 2 W/m 10,5 km/h (2 Bft) 95,74 %
28.07.2017 02:28 15,2 C 14,4 C 12,8 C 85 % 0 lf 1008,0 hPa 0,0 l/m 0 min 0 min 2 W/m 10,5 km/h (2 Bft) 95,74 %
28.07.2017 02:30 15,2 C 14,4 C 12,8 C 85 % 0 lf 1008,1 hPa 0,0 l/m 0 min 0 min 1 W/m 10,5 km/h (2 Bft) 97,87 %
28.07.2017 02:32 15,2 C 14,4 C 12,8 C 85 % 0 lf 1008,0 hPa 0,0 l/m 0 min 0 min 5 W/m 8,4 km/h (2 Bft) 95,74 %
28.07.2017 02:34 15,2 C 14,4 C 12,8 C 85 % 0 lf 1008,0 hPa 0,0 l/m 0 min 0 min 5 W/m 10,5 km/h (2 Bft) 97,87 %
28.07.2017 02:36 15,1 C 13,9 C 12,8 C 85 % 0 lf 1008,0 hPa 0,0 l/m 0 min 0 min 3 W/m 12,6 km/h (3 Bft) 95,65 %
28.07.2017 02:38 15,1 C 14,4 C 12,8 C 85 % 0 lf 1008,0 hPa 0,0 l/m 0 min 0 min 4 W/m 10,5 km/h (2 Bft) 95,74 %
28.07.2017 02:40 15,1 C 13,9 C 12,8 C 85 % 0 lf 1008,1 hPa 0,0 l/m 0 min 0 min 4 W/m 10,5 km/h (2 Bft) 97,87 %
28.07.2017 02:42 15,0 C 13,9 C 12,8 C 85 % 0 lf 1008,1 hPa 0,0 l/m 0 min 0 min 5 W/m 8,4 km/h (2 Bft) 95,74 %
28.07.2017 02:44 15,0 C 13,9 C 12,8 C 84 % 0 lf 1008,0 hPa 0,0 l/m 0 min 0 min 5 W/m 10,5 km/h (2 Bft) 97,87 %
28.07.2017 02:46 14,9 C 13,9 C 12,8 C 84 % 0 lf 1008,1 hPa 0,0 l/m 0 min 0 min 3 W/m 10,5 km/h (2 Bft) 97,87 %
28.07.2017 02:48 14,9 C 13,9 C 12,8 C 84 % 0 lf 1008,0 hPa 0,0 l/m 0 min 0 min 3 W/m 8,4 km/h (2 Bft) 97,83 %
28.07.2017 02:50 14,9 C 13,9 C 12,8 C 84 % 0 lf 1008,0 hPa 0,0 l/m 0 min 0 min 0 W/m 10,5 km/h (2 Bft) 97,87 %
28.07.2017 02:52 14,9 C 13,9 C 12,8 C 84 % 0 lf 1008,0 hPa 0,0 l/m 0 min 0 min 0 W/m 10,5 km/h (2 Bft) 100,00 %
28.07.2017 02:54 14,8 C 13,9 C 12,8 C 84 % 0 lf 1008,0 hPa 0,0 l/m 0 min 0 min 0 W/m 10,5 km/h (2 Bft) 100,00 %
28.07.2017 02:56 14,8 C 13,9 C 12,2 C 84 % 0 lf 1008,0 hPa 0,0 l/m 0 min 0 min 0 W/m 6,3 km/h (2 Bft) 97,87 %
28.07.2017 02:58 14,8 C 13,9 C 12,2 C 84 % 0 lf 1008,0 hPa 0,0 l/m 0 min 0 min 0 W/m 8,4 km/h (2 Bft) 100,00 %
28.07.2017 03:00 14,8 C 13,9 C 12,2 C 84 % 0 lf 1008,0 hPa 0,0 l/m 0 min 0 min 2 W/m 12,6 km/h (3 Bft) 100,00 %
28.07.2017 03:02 14,7 C 13,9 C 12,2 C 84 % 0 lf 1008,0 hPa 0,0 l/m 0 min 0 min 0 W/m 12,6 km/h (3 Bft) 97,87 %
28.07.2017 03:04 14,7 C 13,9 C 12,8 C 84 % 0 lf 1008,1 hPa 0,0 l/m 0 min 0 min 2 W/m 14,6 km/h (3 Bft) 100,00 %
28.07.2017 03:06 14,7 C 13,9 C 12,8 C 84 % 0 lf 1008,2 hPa 0,0 l/m 0 min 0 min 1 W/m 12,6 km/h (3 Bft) 97,87 %
28.07.2017 03:08 14,7 C 13,9 C 12,8 C 84 % 0 lf 1008,2 hPa 0,0 l/m 0 min 0 min 2 W/m 12,6 km/h (3 Bft) 100,00 %
28.07.2017 03:10 14,6 C 13,9 C 12,8 C 84 % 0 lf 1008,2 hPa 0,0 l/m 0 min 0 min 2 W/m 8,4 km/h (2 Bft) 97,87 %
28.07.2017 03:12 14,6 C 13,9 C 12,2 C 84 % 0 lf 1008,2 hPa 0,0 l/m 0 min 0 min 2 W/m 10,5 km/h (2 Bft) 95,65 %
28.07.2017 03:14 14,6 C 13,9 C 12,2 C 84 % 0 lf 1008,2 hPa 0,0 l/m 0 min 0 min 4 W/m 10,5 km/h (2 Bft) 97,87 %
28.07.2017 03:16 14,5 C 13,9 C 12,2 C 84 % 0 lf 1008,1 hPa 0,0 l/m 0 min 0 min 5 W/m 12,6 km/h (3 Bft) 95,74 %
28.07.2017 03:18 14,5 C 13,9 C 12,2 C 84 % 0 lf 1008,2 hPa 0,0 l/m 0 min 0 min 0 W/m 8,4 km/h (2 Bft) 97,87 %
28.07.2017 03:20 14,4 C 13,9 C 12,2 C 84 % 0 lf 1008,1 hPa 0,0 l/m 0 min 0 min 0 W/m 10,5 km/h (2 Bft) 93,62 %
28.07.2017 03:22 14,4 C 13,9 C 12,2 C 84 % 0 lf 1008,1 hPa 0,0 l/m 0 min 0 min 0 W/m 10,5 km/h (2 Bft) 97,87 %
28.07.2017 03:24 14,4 C 13,9 C 12,8 C 84 % 0 lf 1008,1 hPa 0,0 l/m 0 min 0 min 0 W/m 12,6 km/h (3 Bft) 95,65 %
28.07.2017 03:26 14,4 C 13,9 C 12,8 C 84 % 0 lf 1008,2 hPa 0,0 l/m 0 min 0 min 2 W/m 12,6 km/h (3 Bft) 97,87 %
28.07.2017 03:28 14,4 C 13,9 C 12,8 C 84 % 0 lf 1008,1 hPa 0,0 l/m 0 min 0 min 0 W/m 12,6 km/h (3 Bft) 95,74 %
28.07.2017 03:30 14,4 C 13,9 C 12,8 C 84 % 0 lf 1008,2 hPa 0,0 l/m 0 min 0 min 0 W/m 14,6 km/h (3 Bft) 93,62 %
28.07.2017 03:32 14,3 C 13,9 C 12,8 C 84 % 0 lf 1008,3 hPa 0,0 l/m 0 min 0 min 5 W/m 12,6 km/h (3 Bft) 97,87 %
28.07.2017 03:34 14,3 C 13,9 C 12,8 C 84 % 0 lf 1008,2 hPa 0,0 l/m 0 min 0 min 0 W/m 14,6 km/h (3 Bft) 97,87 %
28.07.2017 03:36 14,3 C 13,9 C 12,8 C 84 % 0 lf 1008,2 hPa 0,0 l/m 0 min 0 min 0 W/m 10,5 km/h (2 Bft) 93,48 %
28.07.2017 03:38 14,3 C 13,9 C 12,2 C 84 % 0 lf 1008,2 hPa 0,0 l/m 0 min 0 min 0 W/m 12,6 km/h (3 Bft) 95,74 %
28.07.2017 03:40 14,3 C 13,9 C 12,2 C 84 % 0 lf 1008,2 hPa 0,0 l/m 0 min 0 min 0 W/m 10,5 km/h (2 Bft) 93,62 %
28.07.2017 03:42 14,3 C 13,9 C 12,8 C 84 % 0 lf 1008,2 hPa 0,0 l/m 0 min 0 min 0 W/m 12,6 km/h (3 Bft) 91,49 %
28.07.2017 03:44 14,2 C 13,9 C 12,8 C 84 % 0 lf 1008,3 hPa 0,0 l/m 0 min 0 min 0 W/m 12,6 km/h (3 Bft) 95,74 %
28.07.2017 03:46 14,2 C 13,9 C 12,2 C 84 % 0 lf 1008,3 hPa 0,0 l/m 0 min 0 min 0 W/m 10,5 km/h (2 Bft) 97,87 %
28.07.2017 03:48 14,2 C 13,9 C 12,2 C 84 % 0 lf 1008,3 hPa 0,0 l/m 0 min 0 min 0 W/m 12,6 km/h (3 Bft) 97,83 %
28.07.2017 03:50 14,2 C 13,9 C 12,2 C 84 % 0 lf 1008,4 hPa 0,0 l/m 0 min 0 min 0 W/m 12,6 km/h (3 Bft) 97,87 %
28.07.2017 03:52 14,2 C 13,9 C 12,2 C 84 % 0 lf 1008,3 hPa 0,0 l/m 0 min 0 min 0 W/m 16,7 km/h (3 Bft) 97,87 %
28.07.2017 03:54 14,2 C 13,9 C 12,2 C 84 % 0 lf 1008,4 hPa 0,0 l/m 0 min 0 min 0 W/m 12,6 km/h (3 Bft) 97,87 %
28.07.2017 03:56 14,2 C 13,9 C 12,2 C 84 % 0 lf 1008,4 hPa 0,0 l/m 0 min 0 min 0 W/m 20,9 km/h (4 Bft) 97,87 %
28.07.2017 03:58 14,2 C 13,9 C 12,2 C 84 % 0 lf 1008,4 hPa 0,0 l/m 0 min 0 min 5 W/m 16,7 km/h (3 Bft) 97,83 %
28.07.2017 04:00 14,2 C 13,9 C 12,2 C 84 % 0 lf 1008,4 hPa 0,0 l/m 0 min 0 min 0 W/m 18,8 km/h (3 Bft) 93,62 %
28.07.2017 04:02 14,2 C 13,9 C 12,2 C 84 % 0 lf 1008,4 hPa 0,0 l/m 0 min 0 min 0 W/m 12,6 km/h (3 Bft) 100,00 %
28.07.2017 04:04 14,2 C 13,9 C 12,2 C 84 % 0 lf 1008,4 hPa 0,0 l/m 0 min 0 min 0 W/m 12,6 km/h (3 Bft) 100,00 %
28.07.2017 04:06 14,2 C 13,9 C 12,2 C 84 % 0 lf 1008,5 hPa 0,0 l/m 0 min 0 min 0 W/m 14,6 km/h (3 Bft) 95,74 %
28.07.2017 04:08 14,2 C 13,3 C 12,2 C 84 % 0 lf 1008,5 hPa 0,0 l/m 0 min 0 min 0 W/m 14,6 km/h (3 Bft) 97,87 %
28.07.2017 04:10 14,2 C 13,3 C 12,2 C 84 % 0 lf 1008,5 hPa 0,0 l/m 0 min 0 min 5 W/m 12,6 km/h (3 Bft) 95,65 %
28.07.2017 04:12 14,2 C 13,3 C 12,2 C 84 % 0 lf 1008,5 hPa 0,0 l/m 0 min 0 min 5 W/m 14,6 km/h (3 Bft) 95,74 %
28.07.2017 04:14 14,2 C 13,3 C 12,2 C 84 % 0 lf 1008,5 hPa 0,0 l/m 0 min 0 min 3 W/m 18,8 km/h (3 Bft) 97,87 %
28.07.2017 04:16 14,2 C 13,3 C 12,2 C 84 % 0 lf 1008,6 hPa 0,0 l/m 0 min 0 min 1 W/m 18,8 km/h (3 Bft) 95,74 %
28.07.2017 04:18 14,2 C 13,3 C 12,2 C 84 % 0 lf 1008,6 hPa 0,0 l/m 0 min 0 min 5 W/m 12,6 km/h (3 Bft) 97,87 %
28.07.2017 04:20 14,2 C 13,3 C 12,2 C 84 % 0 lf 1008,6 hPa 0,0 l/m 0 min 0 min 5 W/m 12,6 km/h (3 Bft) 97,87 %
28.07.2017 04:22 14,2 C 13,3 C 12,2 C 84 % 0 lf 1008,7 hPa 0,0 l/m 0 min 0 min 5 W/m 14,6 km/h (3 Bft) 97,83 %
28.07.2017 04:24 14,2 C 13,3 C 12,2 C 84 % 0 lf 1008,7 hPa 0,0 l/m 0 min 0 min 0 W/m 18,8 km/h (3 Bft) 100,00 %
28.07.2017 04:26 14,1 C 13,3 C 12,2 C 84 % 0 lf 1008,7 hPa 0,0 l/m 0 min 0 min 0 W/m 12,6 km/h (3 Bft) 97,87 %
28.07.2017 04:28 14,1 C 13,3 C 12,2 C 85 % 0 lf 1008,6 hPa 0,0 l/m 0 min 0 min 0 W/m 14,6 km/h (3 Bft) 100,00 %
28.07.2017 04:30 14,1 C 13,3 C 12,2 C 85 % 0 lf 1008,5 hPa 0,0 l/m 0 min 0 min 0 W/m 18,8 km/h (3 Bft) 100,00 %
28.07.2017 04:32 14,1 C 13,3 C 12,2 C 85 % 0 lf 1008,6 hPa 0,0 l/m 0 min 0 min 0 W/m 10,5 km/h (2 Bft) 100,00 %
28.07.2017 04:34 14,0 C 13,3 C 12,2 C 85 % 0 lf 1008,5 hPa 0,0 l/m 0 min 0 min 0 W/m 12,6 km/h (3 Bft) 97,83 %
28.07.2017 04:36 14,0 C 13,3 C 12,2 C 85 % 0 lf 1008,6 hPa 0,0 l/m 0 min 0 min 0 W/m 12,6 km/h (3 Bft) 97,87 %
28.07.2017 04:38 14,0 C 13,3 C 12,2 C 85 % 0 lf 1008,7 hPa 0,0 l/m 0 min 0 min 0 W/m 10,5 km/h (2 Bft) 97,87 %
28.07.2017 04:40 14,0 C 13,3 C 12,2 C 85 % 0 lf 1008,7 hPa 0,0 l/m 0 min 0 min 0 W/m 12,6 km/h (3 Bft) 97,87 %
28.07.2017 04:42 13,9 C 13,3 C 12,2 C 85 % 0 lf 1008,7 hPa 0,0 l/m 0 min 0 min 5 W/m 18,8 km/h (3 Bft) 95,74 %
28.07.2017 04:44 13,9 C 13,3 C 12,2 C 85 % 0 lf 1008,7 hPa 0,0 l/m 0 min 0 min 5 W/m 12,6 km/h (3 Bft) 91,49 %
28.07.2017 04:46 13,9 C 13,3 C 12,2 C 85 % 0 lf 1008,8 hPa 0,0 l/m 0 min 0 min 5 W/m 14,6 km/h (3 Bft) 97,83 %
28.07.2017 04:48 13,9 C 13,3 C 12,2 C 85 % 0 lf 1008,7 hPa 0,0 l/m 0 min 0 min 5 W/m 10,5 km/h (2 Bft) 97,87 %
28.07.2017 04:50 13,9 C 13,3 C 12,2 C 85 % 0 lf 1008,6 hPa 0,0 l/m 0 min 0 min 5 W/m 16,7 km/h (3 Bft) 97,87 %
28.07.2017 04:52 13,9 C 13,3 C 12,2 C 85 % 0 lf 1008,7 hPa 0,0 l/m 0 min 0 min 5 W/m 14,6 km/h (3 Bft) 93,62 %
28.07.2017 04:54 13,9 C 13,3 C 12,2 C 85 % 0 lf 1008,6 hPa 0,0 l/m 0 min 0 min 5 W/m 14,6 km/h (3 Bft) 97,87 %
28.07.2017 04:56 13,9 C 13,3 C 12,2 C 85 % 0 lf 1008,6 hPa 0,0 l/m 0 min 0 min 5 W/m 16,7 km/h (3 Bft) 95,74 %
28.07.2017 04:58 13,9 C 13,3 C 12,2 C 85 % 0 lf 1008,6 hPa 0,0 l/m 0 min 0 min 5 W/m 18,8 km/h (3 Bft) 95,65 %
28.07.2017 05:00 13,8 C 13,3 C 12,2 C 85 % 0 lf 1008,7 hPa 0,0 l/m 0 min 0 min 5 W/m 16,7 km/h (3 Bft) 93,62 %
28.07.2017 05:02 13,9 C 13,3 C 12,2 C 86 % 0 lf 1008,7 hPa 0,0 l/m 0 min 0 min 5 W/m 23,0 km/h (4 Bft) 95,74 %
28.07.2017 05:04 13,8 C 13,3 C 12,2 C 86 % 0 lf 1008,7 hPa 0,0 l/m 0 min 0 min 5 W/m 16,7 km/h (3 Bft) 91,49 %
28.07.2017 05:06 13,9 C 13,3 C 12,2 C 86 % 0 lf 1008,8 hPa 0,0 l/m 0 min 0 min 5 W/m 16,7 km/h (3 Bft) 93,62 %
28.07.2017 05:08 13,9 C 13,3 C 12,2 C 86 % 0 lf 1008,7 hPa 0,0 l/m 0 min 0 min 5 W/m 20,9 km/h (4 Bft) 91,30 %
28.07.2017 05:10 13,9 C 13,3 C 12,2 C 86 % 0 lf 1008,8 hPa 0,0 l/m 0 min 0 min 5 W/m 16,7 km/h (3 Bft) 91,49 %
28.07.2017 05:12 13,9 C 13,3 C 12,2 C 86 % 0 lf 1008,8 hPa 0,0 l/m 0 min 0 min 5 W/m 16,7 km/h (3 Bft) 93,62 %
28.07.2017 05:14 13,9 C 13,3 C 12,2 C 86 % 0 lf 1008,7 hPa 0,0 l/m 0 min 0 min 5 W/m 16,7 km/h (3 Bft) 93,62 %
28.07.2017 05:16 13,9 C 13,3 C 12,2 C 86 % 0 lf 1008,7 hPa 0,0 l/m 0 min 0 min 5 W/m 18,8 km/h (3 Bft) 91,49 %
28.07.2017 05:18 13,9 C 13,3 C 12,2 C 87 % 0 lf 1008,8 hPa 0,0 l/m 0 min 0 min 0 W/m 18,8 km/h (3 Bft) 91,49 %
28.07.2017 05:20 13,9 C 13,3 C 12,2 C 87 % 0 lf 1008,8 hPa 0,0 l/m 0 min 0 min 0 W/m 12,6 km/h (3 Bft) 93,48 %
28.07.2017 05:22 13,9 C 13,3 C 12,2 C 87 % 0 lf 1008,8 hPa 0,0 l/m 0 min 0 min 0 W/m 14,6 km/h (3 Bft) 93,62 %
28.07.2017 05:24 13,9 C 13,3 C 12,2 C 87 % 0 lf 1009,0 hPa 0,0 l/m 0 min 0 min 0 W/m 16,7 km/h (3 Bft) 93,62 %
28.07.2017 05:26 13,9 C 13,3 C 12,2 C 87 % 0 lf 1009,0 hPa 0,0 l/m 0 min 0 min 0 W/m 14,6 km/h (3 Bft) 93,62 %
28.07.2017 05:28 13,9 C 13,3 C 12,2 C 87 % 0 lf 1009,0 hPa 0,0 l/m 0 min 0 min 0 W/m 18,8 km/h (3 Bft) 91,49 %
28.07.2017 05:30 13,9 C 13,3 C 12,2 C 87 % 0 lf 1008,9 hPa 0,0 l/m 0 min 0 min 0 W/m 23,0 km/h (4 Bft) 93,62 %
28.07.2017 05:32 13,9 C 13,3 C 12,2 C 87 % 0 lf 1008,9 hPa 0,0 l/m 0 min 0 min 0 W/m 12,6 km/h (3 Bft) 91,30 %
28.07.2017 05:34 13,9 C 13,3 C 12,2 C 87 % 0 lf 1009,0 hPa 0,0 l/m 0 min 0 min 0 W/m 16,7 km/h (3 Bft) 87,23 %
28.07.2017 05:36 13,9 C 13,3 C 12,2 C 87 % 0 lf 1009,0 hPa 0,0 l/m 0 min 0 min 0 W/m 16,7 km/h (3 Bft) 93,62 %
28.07.2017 05:38 13,9 C 13,3 C 12,2 C 87 % 0 lf 1009,0 hPa 0,0 l/m 0 min 0 min 8 W/m 16,7 km/h (3 Bft) 95,74 %
28.07.2017 05:40 13,9 C 13,3 C 12,2 C 87 % 0 lf 1009,0 hPa 0,0 l/m 0 min 0 min 8 W/m 16,7 km/h (3 Bft) 95,74 %
28.07.2017 05:42 13,9 C 13,3 C 12,2 C 88 % 0 lf 1009,0 hPa 0,0 l/m 0 min 0 min 8 W/m 16,7 km/h (3 Bft) 97,87 %
28.07.2017 05:44 13,9 C 13,3 C 12,2 C 88 % 0 lf 1009,0 hPa 0,0 l/m 0 min 0 min 9 W/m 18,8 km/h (3 Bft) 95,65 %
28.07.2017 05:46 13,9 C 13,3 C 12,2 C 88 % 0 lf 1009,0 hPa 0,0 l/m 0 min 0 min 10 W/m 18,8 km/h (3 Bft) 100,00 %
28.07.2017 05:48 13,9 C 13,3 C 12,2 C 88 % 0 lf 1009,1 hPa 0,0 l/m 0 min 0 min 9 W/m 14,6 km/h (3 Bft) 100,00 %
28.07.2017 05:50 13,9 C 13,3 C 12,2 C 88 % 0 lf 1009,1 hPa 0,0 l/m 0 min 0 min 9 W/m 18,8 km/h (3 Bft) 100,00 %
28.07.2017 05:52 13,9 C 13,3 C 12,2 C 88 % 0 lf 1009,1 hPa 0,0 l/m 0 min 0 min 9 W/m 14,6 km/h (3 Bft) 97,87 %
28.07.2017 05:54 13,9 C 13,3 C 12,2 C 88 % 0 lf 1009,0 hPa 0,0 l/m 0 min 0 min 11 W/m 20,9 km/h (4 Bft) 97,87 %
28.07.2017 05:56 13,8 C 13,3 C 12,2 C 88 % 0 lf 1009,0 hPa 0,0 l/m 0 min 0 min 11 W/m 12,6 km/h (3 Bft) 100,00 %
28.07.2017 05:58 13,8 C 13,3 C 12,2 C 88 % 0 lf 1009,0 hPa 0,0 l/m 0 min 0 min 12 W/m 14,6 km/h (3 Bft) 97,87 %
28.07.2017 06:00 13,8 C 13,3 C 12,2 C 88 % 0 lf 1009,1 hPa 0,0 l/m 0 min 0 min 12 W/m 14,6 km/h (3 Bft) 100,00 %
28.07.2017 06:02 13,8 C 13,3 C 12,2 C 88 % 0 lf 1009,0 hPa 0,0 l/m 0 min 0 min 12 W/m 18,8 km/h (3 Bft) 95,74 %
28.07.2017 06:04 13,8 C 13,3 C 12,2 C 88 % 0 lf 1009,0 hPa 0,0 l/m 0 min 0 min 12 W/m 16,7 km/h (3 Bft) 100,00 %
28.07.2017 06:06 13,8 C 13,3 C 12,2 C 88 % 0 lf 1009,0 hPa 0,0 l/m 0 min 0 min 12 W/m 14,6 km/h (3 Bft) 97,87 %
28.07.2017 06:10 13,8 C 13,3 C 12,2 C 88 % 0 lf 1009,0 hPa 0,0 l/m 0 min 0 min 15 W/m 18,8 km/h (3 Bft) 95,70 %
28.07.2017 06:12 13,8 C 13,3 C 12,2 C 88 % 0 lf 1009,0 hPa 0,0 l/m 0 min 0 min 18 W/m 14,6 km/h (3 Bft) 100,00 %
28.07.2017 06:14 13,8 C 13,3 C 12,2 C 88 % 0 lf 1009,0 hPa 0,0 l/m 0 min 0 min 19 W/m 16,7 km/h (3 Bft) 97,87 %
28.07.2017 06:16 13,8 C 13,3 C 12,2 C 88 % 0 lf 1009,0 hPa 0,0 l/m 2 min 0 min 22 W/m 14,6 km/h (3 Bft) 97,87 %
28.07.2017 06:18 13,8 C 13,3 C 12,2 C 88 % 0 lf 1009,0 hPa 0,0 l/m 2 min 0 min 24 W/m 12,6 km/h (3 Bft) 100,00 %
28.07.2017 06:20 13,8 C 13,3 C 12,2 C 89 % 0 lf 1009,0 hPa 0,0 l/m 2 min 0 min 26 W/m 10,5 km/h (2 Bft) 100,00 %
28.07.2017 06:22 13,8 C 13,3 C 12,2 C 89 % 0 lf 1009,1 hPa 0,0 l/m 2 min 0 min 28 W/m 14,6 km/h (3 Bft) 97,87 %
28.07.2017 06:24 13,8 C 13,3 C 12,2 C 89 % 0 lf 1009,1 hPa 0,0 l/m 2 min 0 min 31 W/m 14,6 km/h (3 Bft) 97,87 %
28.07.2017 06:26 13,8 C 13,3 C 12,2 C 89 % 0 lf 1009,1 hPa 0,0 l/m 2 min 0 min 33 W/m 14,6 km/h (3 Bft) 95,74 %
28.07.2017 06:28 13,8 C 13,3 C 12,2 C 89 % 0 lf 1009,1 hPa 0,0 l/m 2 min 0 min 35 W/m 16,7 km/h (3 Bft) 100,00 %
28.07.2017 06:30 13,8 C 13,3 C 12,2 C 89 % 0 lf 1009,1 hPa 0,0 l/m 2 min 0 min 38 W/m 12,6 km/h (3 Bft) 97,83 %
28.07.2017 06:32 13,8 C 13,3 C 12,2 C 89 % 0 lf 1009,1 hPa 0,0 l/m 2 min 0 min 40 W/m 14,6 km/h (3 Bft) 97,87 %
28.07.2017 06:34 13,7 C 13,3 C 12,2 C 89 % 0 lf 1009,1 hPa 0,0 l/m 2 min 0 min 44 W/m 14,6 km/h (3 Bft) 97,87 %
28.07.2017 06:36 13,8 C 13,3 C 12,2 C 89 % 0 lf 1009,2 hPa 0,0 l/m 2 min 0 min 47 W/m 20,9 km/h (4 Bft) 97,87 %
28.07.2017 06:38 13,8 C 13,9 C 12,2 C 89 % 0 lf 1009,2 hPa 0,0 l/m 2 min 0 min 49 W/m 16,7 km/h (3 Bft) 97,87 %
28.07.2017 06:40 13,8 C 13,9 C 12,2 C 89 % 0 lf 1009,2 hPa 0,0 l/m 2 min 0 min 53 W/m 18,8 km/h (3 Bft) 97,87 %
28.07.2017 06:42 13,8 C 13,9 C 12,2 C 89 % 0 lf 1009,2 hPa 0,0 l/m 2 min 0 min 55 W/m 18,8 km/h (3 Bft) 93,48 %
28.07.2017 06:44 13,8 C 13,9 C 12,2 C 89 % 0 lf 1009,3 hPa 0,0 l/m 2 min 0 min 61 W/m 23,0 km/h (4 Bft) 97,87 %
28.07.2017 06:46 13,8 C 13,9 C 12,8 C 90 % 0 lf 1009,3 hPa 0,0 l/m 2 min 0 min 65 W/m 18,8 km/h (3 Bft) 91,49 %
28.07.2017 06:48 13,8 C 13,9 C 12,2 C 90 % 0 lf 1009,3 hPa 0,0 l/m 2 min 0 min 70 W/m 12,6 km/h (3 Bft) 97,87 %
28.07.2017 06:50 13,9 C 13,9 C 12,8 C 90 % 0 lf 1009,3 hPa 0,0 l/m 2 min 0 min 76 W/m 23,0 km/h (4 Bft) 95,74 %
28.07.2017 06:52 13,9 C 13,9 C 12,8 C 90 % 0 lf 1009,4 hPa 0,0 l/m 2 min 0 min 82 W/m 14,6 km/h (3 Bft) 95,74 %
28.07.2017 06:54 13,9 C 13,9 C 12,8 C 90 % 0 lf 1009,4 hPa 0,0 l/m 2 min 0 min 86 W/m 18,8 km/h (3 Bft) 95,65 %
28.07.2017 06:56 13,9 C 13,9 C 12,8 C 90 % 0 lf 1009,4 hPa 0,0 l/m 2 min 0 min 80 W/m 16,7 km/h (3 Bft) 93,62 %
28.07.2017 06:58 13,9 C 13,9 C 12,8 C 90 % 0 lf 1009,5 hPa 0,0 l/m 2 min 0 min 87 W/m 29,3 km/h (5 Bft) 95,74 %
28.07.2017 07:00 13,9 C 14,4 C 12,8 C 90 % 0 lf 1009,5 hPa 0,0 l/m 2 min 0 min 108 W/m 16,7 km/h (3 Bft) 95,74 %
28.07.2017 07:02 14,0 C 14,4 C 12,8 C 90 % 0 lf 1009,4 hPa 0,0 l/m 2 min 0 min 110 W/m 27,2 km/h (4 Bft) 93,62 %
28.07.2017 07:04 14,1 C 14,4 C 12,8 C 90 % 0 lf 1009,4 hPa 0,0 l/m 2 min 0 min 106 W/m 23,0 km/h (4 Bft) 95,74 %
28.07.2017 07:07 14,2 C 14,4 C 12,8 C 90 % 0 lf 1009,4 hPa 0,0 l/m 3 min 0 min 112 W/m 18,8 km/h (3 Bft) 95,71 %
28.07.2017 07:08 14,2 C 14,4 C 12,8 C 90 % 0 lf 1009,4 hPa 0,0 l/m 1 min 0 min 121 W/m 10,5 km/h (2 Bft) 90,91 %
28.07.2017 07:10 14,2 C 14,4 C 12,8 C 90 % 0 lf 1009,4 hPa 0,0 l/m 2 min 0 min 125 W/m 14,6 km/h (3 Bft) 94,92 %
28.07.2017 07:14 14,2 C 14,4 C 12,8 C 90 % 0 lf 1009,5 hPa 0,0 l/m 4 min 0 min 140 W/m 16,7 km/h (3 Bft) 94,29 %
28.07.2017 07:16 14,2 C 14,4 C 13,3 C 90 % 0 lf 1009,4 hPa 0,0 l/m 2 min 0 min 136 W/m 20,9 km/h (4 Bft) 97,87 %
28.07.2017 07:18 14,2 C 14,4 C 13,3 C 90 % 0 lf 1009,4 hPa 0,0 l/m 2 min 0 min 142 W/m 20,9 km/h (4 Bft) 100,00 %
28.07.2017 07:20 14,2 C 14,4 C 13,3 C 90 % 0 lf 1009,3 hPa 0,0 l/m 2 min 0 min 112 W/m 18,8 km/h (3 Bft) 97,87 %
28.07.2017 07:22 14,2 C 14,4 C 13,3 C 90 % 0 lf 1009,3 hPa 0,0 l/m 2 min 0 min 145 W/m 14,6 km/h (3 Bft) 97,56 %
28.07.2017 07:24 14,2 C 14,4 C 13,3 C 90 % 0 lf 1009,3 hPa 0,0 l/m 2 min 0 min 167 W/m 12,6 km/h (3 Bft) 93,62 %
28.07.2017 07:26 14,3 C 15,0 C 13,3 C 90 % 0 lf 1009,4 hPa 0,0 l/m 2 min 0 min 190 W/m 20,9 km/h (4 Bft) 97,87 %
28.07.2017 07:28 14,3 C 15,0 C 13,3 C 90 % 0 lf 1009,4 hPa 0,0 l/m 2 min 0 min 157 W/m 20,9 km/h (4 Bft) 95,74 %
28.07.2017 07:30 14,4 C 15,0 C 13,3 C 90 % 0 lf 1009,4 hPa 0,0 l/m 0 min 0 min 95 W/m 14,6 km/h (3 Bft) 97,87 %
28.07.2017 07:32 14,4 C 15,0 C 13,9 C 90 % 0 lf 1009,5 hPa 0,0 l/m 2 min 0 min 152 W/m 16,7 km/h (3 Bft) 95,74 %
28.07.2017 07:34 14,4 C 15,0 C 13,9 C 90 % 0 lf 1009,4 hPa 0,0 l/m 2 min 0 min 148 W/m 16,7 km/h (3 Bft) 97,83 %
28.07.2017 07:36 14,5 C 15,6 C 13,9 C 90 % 0 lf 1009,4 hPa 0,0 l/m 2 min 0 min 132 W/m 25,1 km/h (4 Bft) 97,87 %
28.07.2017 07:38 14,6 C 15,6 C 13,9 C 90 % 0 lf 1009,4 hPa 0,0 l/m 2 min 0 min 230 W/m 25,1 km/h (4 Bft) 100,00 %
28.07.2017 07:40 14,6 C 15,6 C 13,9 C 90 % 0 lf 1009,5 hPa 0,0 l/m 2 min 0 min 185 W/m 20,9 km/h (4 Bft) 100,00 %
28.07.2017 07:42 14,7 C 15,6 C 13,9 C 89 % 0 lf 1009,6 hPa 0,0 l/m 0 min 0 min 122 W/m 25,1 km/h (4 Bft) 100,00 %
28.07.2017 07:44 14,7 C 15,6 C 13,9 C 89 % 0 lf 1009,7 hPa 0,0 l/m 0 min 0 min 97 W/m 27,2 km/h (4 Bft) 97,87 %
28.07.2017 07:46 14,8 C 15,6 C 13,9 C 89 % 0 lf 1009,6 hPa 0,0 l/m 0 min 0 min 98 W/m 20,9 km/h (4 Bft) 97,83 %
28.07.2017 07:48 14,8 C 15,6 C 13,9 C 89 % 0 lf 1009,7 hPa 0,0 l/m 2 min 0 min 133 W/m 18,8 km/h (3 Bft) 95,74 %
28.07.2017 07:50 14,8 C 15,6 C 13,9 C 89 % 0 lf 1009,7 hPa 0,0 l/m 2 min 0 min 261 W/m 29,3 km/h (5 Bft) 98,31 %
28.07.2017 07:52 14,9 C 15,6 C 14,4 C 89 % 0 lf 1009,5 hPa 0,0 l/m 2 min 0 min 250 W/m 20,9 km/h (4 Bft) 100,00 %
28.07.2017 07:54 14,9 C 15,6 C 14,4 C 88 % 0 lf 1009,5 hPa 0,0 l/m 0 min 0 min 137 W/m 25,1 km/h (4 Bft) 95,74 %
28.07.2017 07:56 15,0 C 15,6 C 14,4 C 88 % 0 lf 1009,6 hPa 0,0 l/m 2 min 0 min 259 W/m 23,0 km/h (4 Bft) 95,65 %
28.07.2017 07:58 15,1 C 16,1 C 14,4 C 88 % 0 lf 1009,6 hPa 0,0 l/m 2 min 0 min 274 W/m 16,7 km/h (3 Bft) 95,74 %
28.07.2017 08:00 15,1 C 16,1 C 14,4 C 88 % 0 lf 1009,5 hPa 0,0 l/m 2 min 0 min 250 W/m 33,5 km/h (5 Bft) 97,87 %
28.07.2017 08:02 15,1 C 15,6 C 14,4 C 88 % 0 lf 1009,5 hPa 0,0 l/m 2 min 0 min 265 W/m 25,1 km/h (4 Bft) 97,87 %
28.07.2017 08:04 15,2 C 16,1 C 14,4 C 88 % 0 lf 1009,5 hPa 0,0 l/m 2 min 0 min 263 W/m 18,8 km/h (3 Bft) 97,87 %
28.07.2017 08:06 15,2 C 16,1 C 14,4 C 87 % 0 lf 1009,5 hPa 0,0 l/m 2 min 0 min 266 W/m 18,8 km/h (3 Bft) 95,74 %
28.07.2017 08:08 15,2 C 16,1 C 14,4 C 87 % 0 lf 1009,5 hPa 0,0 l/m 2 min 0 min 275 W/m 16,7 km/h (3 Bft) 97,83 %
28.07.2017 08:10 15,3 C 16,1 C 14,4 C 87 % 0 lf 1009,6 hPa 0,0 l/m 2 min 0 min 284 W/m 23,0 km/h (4 Bft) 97,87 %
28.07.2017 08:12 15,3 C 16,1 C 14,4 C 87 % 0 lf 1009,7 hPa 0,0 l/m 2 min 0 min 291 W/m 25,1 km/h (4 Bft) 97,87 %
28.07.2017 08:14 15,3 C 16,1 C 14,4 C 87 % 0 lf 1009,7 hPa 0,0 l/m 2 min 0 min 294 W/m 33,5 km/h (5 Bft) 95,74 %
28.07.2017 08:16 15,4 C 16,1 C 14,4 C 87 % 0 lf 1009,7 hPa 0,0 l/m 2 min 0 min 300 W/m 31,4 km/h (5 Bft) 95,74 %
28.07.2017 08:18 15,4 C 16,1 C 14,4 C 87 % 0 lf 1009,8 hPa 0,0 l/m 2 min 0 min 306 W/m 27,2 km/h (4 Bft) 97,87 %
28.07.2017 08:20 15,4 C 16,1 C 14,4 C 87 % 0 lf 1009,7 hPa 0,0 l/m 2 min 0 min 311 W/m 25,1 km/h (4 Bft) 98,28 %
28.07.2017 08:22 15,5 C 16,1 C 14,4 C 86 % 0 lf 1009,8 hPa 0,0 l/m 2 min 0 min 321 W/m 29,3 km/h (5 Bft) 97,37 %
28.07.2017 08:24 15,6 C 16,7 C 14,4 C 86 % 0 lf 1009,8 hPa 0,0 l/m 2 min 0 min 323 W/m 27,2 km/h (4 Bft) 95,74 %
28.07.2017 08:26 15,6 C 16,7 C 14,4 C 86 % 0 lf 1009,8 hPa 0,0 l/m 2 min 0 min 328 W/m 25,1 km/h (4 Bft) 91,49 %
28.07.2017 08:28 15,7 C 16,7 C 15,0 C 86 % 0 lf 1009,9 hPa 0,0 l/m 2 min 0 min 338 W/m 31,4 km/h (5 Bft) 95,74 %
28.07.2017 08:30 15,7 C 16,7 C 15,0 C 86 % 0 lf 1009,9 hPa 0,0 l/m 2 min 0 min 346 W/m 23,0 km/h (4 Bft) 93,62 %
28.07.2017 08:32 15,8 C 16,7 C 15,0 C 86 % 0 lf 1009,9 hPa 0,0 l/m 2 min 0 min 346 W/m 29,3 km/h (5 Bft) 95,65 %
28.07.2017 08:34 15,8 C 16,7 C 15,0 C 86 % 0 lf 1009,9 hPa 0,0 l/m 2 min 0 min 342 W/m 23,0 km/h (4 Bft) 95,74 %
28.07.2017 08:36 15,8 C 18,3 C 15,0 C 86 % 0 lf 1010,0 hPa 0,0 l/m 2 min 0 min 370 W/m 29,3 km/h (5 Bft) 95,74 %
28.07.2017 08:38 15,9 C 20,0 C 15,0 C 86 % 0 lf 1010,0 hPa 0,0 l/m 2 min 0 min 384 W/m 23,0 km/h (4 Bft) 95,74 %
28.07.2017 08:40 16,0 C 20,6 C 15,0 C 86 % 0 lf 1010,0 hPa 0,0 l/m 2 min 0 min 362 W/m 29,3 km/h (5 Bft) 95,74 %
28.07.2017 08:42 16,1 C 21,1 C 15,0 C 85 % 0 lf 1010,0 hPa 0,0 l/m 2 min 0 min 375 W/m 31,4 km/h (5 Bft) 91,49 %
28.07.2017 08:44 16,2 C 22,2 C 15,6 C 85 % 0 lf 1010,0 hPa 0,0 l/m 2 min 0 min 390 W/m 27,2 km/h (4 Bft) 97,83 %
28.07.2017 08:46 16,2 C 22,8 C 15,6 C 85 % 0 lf 1010,1 hPa 0,0 l/m 2 min 0 min 395 W/m 16,7 km/h (3 Bft) 95,74 %
28.07.2017 08:48 16,3 C 23,3 C 15,6 C 85 % 0 lf 1010,2 hPa 0,0 l/m 2 min 0 min 412 W/m 18,8 km/h (3 Bft) 97,87 %
28.07.2017 08:50 16,4 C 23,3 C 15,6 C 85 % 0 lf 1010,2 hPa 0,0 l/m 2 min 0 min 416 W/m 25,1 km/h (4 Bft) 97,87 %
28.07.2017 08:52 16,4 C 23,9 C 15,6 C 84 % 0 lf 1010,2 hPa 0,0 l/m 2 min 0 min 386 W/m 20,9 km/h (4 Bft) 97,87 %
28.07.2017 08:54 16,6 C 22,2 C 15,6 C 84 % 0 lf 1010,2 hPa 0,0 l/m 2 min 0 min 414 W/m 25,1 km/h (4 Bft) 95,65 %
28.07.2017 08:56 16,7 C 23,3 C 15,6 C 84 % 0 lf 1010,2 hPa 0,0 l/m 2 min 0 min 413 W/m 18,8 km/h (3 Bft) 97,87 %
28.07.2017 08:58 16,8 C 23,3 C 16,1 C 84 % 0 lf 1010,1 hPa 0,0 l/m 2 min 0 min 419 W/m 25,1 km/h (4 Bft) 93,62 %
28.07.2017 09:00 16,9 C 23,3 C 15,6 C 83 % 0 lf 1010,1 hPa 0,0 l/m 2 min 0 min 425 W/m 33,5 km/h (5 Bft) 97,87 %
28.07.2017 09:02 17,0 C 23,9 C 15,6 C 82 % 0 lf 1010,2 hPa 0,0 l/m 2 min 0 min 431 W/m 35,6 km/h (5 Bft) 97,87 %
28.07.2017 09:04 17,1 C 23,3 C 15,6 C 82 % 0 lf 1010,2 hPa 0,0 l/m 2 min 0 min 440 W/m 31,4 km/h (5 Bft) 95,74 %
28.07.2017 09:06 17,1 C 23,3 C 16,1 C 81 % 0 lf 1010,2 hPa 0,0 l/m 2 min 0 min 437 W/m 25,1 km/h (4 Bft) 93,48 %
28.07.2017 09:08 17,2 C 23,9 C 16,1 C 81 % 0 lf 1010,2 hPa 0,0 l/m 2 min 0 min 449 W/m 25,1 km/h (4 Bft) 95,74 %
28.07.2017 09:10 17,3 C 22,8 C 16,1 C 81 % 0 lf 1010,3 hPa 0,0 l/m 2 min 0 min 458 W/m 27,2 km/h (4 Bft) 93,62 %
28.07.2017 09:12 17,4 C 23,3 C 16,1 C 80 % 0 lf 1010,2 hPa 0,0 l/m 2 min 0 min 466 W/m 27,2 km/h (4 Bft) 95,74 %
28.07.2017 09:14 17,4 C 23,9 C 16,1 C 80 % 0 lf 1010,3 hPa 0,0 l/m 2 min 0 min 483 W/m 33,5 km/h (5 Bft) 91,49 %
28.07.2017 09:16 17,6 C 25,0 C 16,7 C 80 % 0 lf 1010,3 hPa 0,0 l/m 2 min 0 min 496 W/m 27,2 km/h (4 Bft) 89,36 %
28.07.2017 09:18 17,6 C 24,4 C 16,7 C 80 % 0 lf 1010,3 hPa 0,0 l/m 2 min 0 min 503 W/m 29,3 km/h (5 Bft) 95,65 %
28.07.2017 09:20 17,7 C 25,0 C 16,7 C 79 % 0 lf 1010,3 hPa 0,0 l/m 2 min 0 min 528 W/m 33,5 km/h (5 Bft) 93,62 %
28.07.2017 09:22 17,7 C 22,8 C 16,7 C 79 % 0 lf 1010,3 hPa 0,0 l/m 2 min 0 min 541 W/m 37,7 km/h (5 Bft) 97,87 %
28.07.2017 09:24 17,8 C 23,9 C 16,7 C 78 % 0 lf 1010,4 hPa 0,0 l/m 2 min 0 min 518 W/m 25,1 km/h (4 Bft) 97,87 %
28.07.2017 09:26 17,8 C 22,2 C 16,7 C 78 % 0 lf 1010,4 hPa 0,0 l/m 2 min 0 min 521 W/m 31,4 km/h (5 Bft) 93,62 %
28.07.2017 09:28 17,8 C 23,3 C 16,7 C 78 % 0 lf 1010,4 hPa 0,0 l/m 2 min 0 min 520 W/m 29,3 km/h (5 Bft) 95,74 %
28.07.2017 09:30 17,9 C 25,0 C 17,8 C 79 % 0 lf 1010,4 hPa 0,0 l/m 2 min 0 min 559 W/m 23,0 km/h (4 Bft) 95,65 %
28.07.2017 09:32 17,9 C 24,4 C 17,8 C 78 % 0 lf 1010,4 hPa 0,0 l/m 2 min 0 min 596 W/m 18,8 km/h (3 Bft) 93,62 %
28.07.2017 09:34 17,9 C 21,7 C 17,8 C 78 % 0 lf 1010,4 hPa 0,0 l/m 2 min 0 min 350 W/m 31,4 km/h (5 Bft) 95,74 %
28.07.2017 09:36 18,0 C 21,1 C 17,8 C 77 % 0 lf 1010,5 hPa 0,0 l/m 0 min 0 min 239 W/m 25,1 km/h (4 Bft) 95,74 %
28.07.2017 09:38 17,9 C 20,0 C 17,8 C 77 % 0 lf 1010,5 hPa 0,0 l/m 2 min 0 min 283 W/m 31,4 km/h (5 Bft) 93,62 %
28.07.2017 09:40 17,9 C 20,0 C 17,8 C 77 % 0 lf 1010,5 hPa 0,0 l/m 2 min 0 min 277 W/m 23,0 km/h (4 Bft) 93,62 %
28.07.2017 09:42 17,9 C 20,0 C 18,3 C 78 % 0 lf 1010,5 hPa 0,0 l/m 2 min 0 min 361 W/m 33,5 km/h (5 Bft) 95,65 %
28.07.2017 09:44 17,9 C 20,6 C 18,3 C 78 % 0 lf 1010,5 hPa 0,0 l/m 0 min 0 min 261 W/m 20,9 km/h (4 Bft) 95,74 %
28.07.2017 09:46 17,9 C 20,0 C 17,8 C 78 % 0 lf 1010,7 hPa 0,0 l/m 0 min 0 min 225 W/m 29,3 km/h (5 Bft) 97,87 %
28.07.2017 09:48 17,8 C 20,0 C 17,8 C 78 % 0 lf 1010,6 hPa 0,0 l/m 0 min 0 min 223 W/m 31,4 km/h (5 Bft) 97,87 %
28.07.2017 09:50 17,8 C 21,1 C 18,9 C 78 % 0 lf 1010,6 hPa 0,0 l/m 0 min 0 min 218 W/m 18,8 km/h (3 Bft) 95,74 %
28.07.2017 09:52 17,8 C 23,9 C 21,1 C 79 % 0 lf 1010,6 hPa 0,0 l/m 2 min 0 min 513 W/m 18,8 km/h (3 Bft) 95,65 %
28.07.2017 09:54 17,9 C 24,4 C 21,1 C 79 % 0 lf 1010,7 hPa 0,0 l/m 2 min 0 min 627 W/m 31,4 km/h (5 Bft) 97,87 %
28.07.2017 09:56 18,1 C 26,1 C 22,8 C 78 % 0 lf 1010,8 hPa 0,0 l/m 2 min 0 min 648 W/m 31,4 km/h (5 Bft) 95,74 %
28.07.2017 09:58 18,2 C 26,1 C 23,9 C 78 % 0 lf 1010,7 hPa 0,0 l/m 2 min 0 min 700 W/m 29,3 km/h (5 Bft) 95,74 %
28.07.2017 10:00 18,3 C 25,0 C 22,8 C 77 % 0 lf 1010,8 hPa 0,0 l/m 2 min 0 min 646 W/m 31,4 km/h (5 Bft) 97,87 %
28.07.2017 10:02 18,4 C 23,3 C 22,8 C 77 % 0 lf 1010,7 hPa 0,0 l/m 2 min 0 min 486 W/m 33,5 km/h (5 Bft) 95,74 %
28.07.2017 10:04 18,5 C 21,7 C 21,1 C 76 % 0 lf 1010,7 hPa 0,0 l/m 2 min 0 min 329 W/m 39,7 km/h (6 Bft) 97,83 %
28.07.2017 10:06 18,5 C 22,2 C 20,6 C 76 % 0 lf 1010,8 hPa 0,0 l/m 2 min 0 min 436 W/m 29,3 km/h (5 Bft) 95,74 %
28.07.2017 10:08 18,6 C 21,7 C 20,0 C 75 % 0 lf 1010,8 hPa 0,0 l/m 2 min 0 min 464 W/m 31,4 km/h (5 Bft) 93,62 %
28.07.2017 10:10 18,6 C 21,7 C 20,0 C 75 % 0 lf 1010,9 hPa 0,0 l/m 2 min 0 min 389 W/m 29,3 km/h (5 Bft) 97,87 %
28.07.2017 10:12 18,6 C 21,1 C 20,0 C 75 % 0 lf 1010,8 hPa 0,0 l/m 2 min 0 min 378 W/m 35,6 km/h (5 Bft) 95,74 %
28.07.2017 10:14 18,6 C 20,6 C 19,4 C 74 % 0 lf 1010,9 hPa 0,0 l/m 2 min 0 min 305 W/m 39,7 km/h (6 Bft) 100,00 %
28.07.2017 10:16 18,5 C 20,0 C 19,4 C 74 % 0 lf 1010,9 hPa 0,0 l/m 0 min 0 min 223 W/m 31,4 km/h (5 Bft) 97,83 %
28.07.2017 10:18 18,5 C 21,7 C 20,0 C 74 % 0 lf 1010,9 hPa 0,0 l/m 0 min 0 min 287 W/m 23,0 km/h (4 Bft) 97,87 %
28.07.2017 10:20 18,5 C 22,8 C 21,1 C 75 % 0 lf 1010,8 hPa 0,0 l/m 2 min 0 min 404 W/m 25,1 km/h (4 Bft) 97,87 %
28.07.2017 10:22 18,6 C 23,3 C 21,7 C 75 % 0 lf 1010,8 hPa 0,0 l/m 2 min 0 min 535 W/m 25,1 km/h (4 Bft) 93,62 %
28.07.2017 10:24 18,6 C 22,8 C 21,7 C 74 % 0 lf 1010,7 hPa 0,0 l/m 2 min 0 min 465 W/m 31,4 km/h (5 Bft) 100,00 %
28.07.2017 10:26 18,6 C 22,8 C 21,1 C 74 % 0 lf 1010,8 hPa 0,0 l/m 2 min 0 min 372 W/m 27,2 km/h (4 Bft) 100,00 %
28.07.2017 10:28 18,7 C 21,7 C 20,6 C 74 % 0 lf 1010,7 hPa 0,0 l/m 0 min 0 min 311 W/m 25,1 km/h (4 Bft) 95,65 %
28.07.2017 10:30 18,7 C 21,1 C 20,0 C 74 % 0 lf 1010,7 hPa 0,0 l/m 0 min 0 min 290 W/m 29,3 km/h (5 Bft) 95,74 %
28.07.2017 10:32 18,7 C 21,1 C 19,4 C 74 % 0 lf 1010,8 hPa 0,0 l/m 0 min 0 min 254 W/m 29,3 km/h (5 Bft) 97,87 %
28.07.2017 10:34 18,7 C 22,8 C 21,1 C 74 % 0 lf 1010,8 hPa 0,0 l/m 0 min 0 min 246 W/m 25,1 km/h (4 Bft) 97,87 %
28.07.2017 10:36 18,7 C 23,9 C 22,8 C 74 % 0 lf 1010,8 hPa 0,0 l/m 0 min 0 min 246 W/m 27,2 km/h (4 Bft) 95,74 %
28.07.2017 10:38 18,8 C 23,3 C 22,2 C 74 % 0 lf 1010,7 hPa 0,0 l/m 0 min 0 min 253 W/m 18,8 km/h (3 Bft) 97,87 %
28.07.2017 10:40 18,9 C 25,6 C 23,9 C 74 % 0 lf 1010,8 hPa 0,0 l/m 2 min 0 min 681 W/m 29,3 km/h (5 Bft) 97,83 %
28.07.2017 10:42 19,1 C 26,1 C 24,4 C 74 % 0 lf 1010,7 hPa 0,0 l/m 2 min 0 min 698 W/m 31,4 km/h (5 Bft) 97,87 %
28.07.2017 10:44 19,2 C 26,7 C 23,9 C 74 % 0 lf 1010,7 hPa 0,0 l/m 2 min 0 min 702 W/m 33,5 km/h (5 Bft) 97,87 %
28.07.2017 10:46 19,3 C 27,8 C 25,0 C 74 % 0 lf 1010,8 hPa 0,0 l/m 2 min 0 min 706 W/m 25,1 km/h (4 Bft) 97,87 %
28.07.2017 10:48 19,4 C 27,8 C 25,0 C 74 % 0 lf 1010,8 hPa 0,0 l/m 2 min 0 min 710 W/m 16,7 km/h (3 Bft) 89,36 %
28.07.2017 10:50 19,6 C 27,8 C 25,6 C 74 % 0 lf 1010,7 hPa 0,0 l/m 2 min 0 min 713 W/m 25,1 km/h (4 Bft) 97,87 %
28.07.2017 10:52 19,7 C 27,8 C 26,1 C 73 % 0 lf 1010,8 hPa 0,0 l/m 2 min 0 min 717 W/m 31,4 km/h (5 Bft) 97,83 %
28.07.2017 10:54 19,9 C 27,8 C 25,6 C 73 % 0 lf 1010,8 hPa 0,0 l/m 2 min 0 min 720 W/m 25,1 km/h (4 Bft) 97,87 %
28.07.2017 10:56 19,9 C 26,7 C 24,4 C 71 % 0 lf 1010,9 hPa 0,0 l/m 2 min 0 min 724 W/m 23,0 km/h (4 Bft) 95,74 %
28.07.2017 10:58 20,0 C 24,4 C 22,8 C 70 % 0 lf 1010,8 hPa 0,0 l/m 2 min 0 min 727 W/m 20,9 km/h (4 Bft) 97,87 %
28.07.2017 11:00 20,0 C 23,9 C 22,8 C 70 % 0 lf 1010,9 hPa 0,0 l/m 2 min 0 min 380 W/m 18,8 km/h (3 Bft) 95,74 %
28.07.2017 11:02 20,1 C 23,9 C 22,8 C 70 % 0 lf 1011,0 hPa 0,0 l/m 2 min 0 min 396 W/m 18,8 km/h (3 Bft) 100,00 %
28.07.2017 11:04 19,9 C 22,2 C 21,1 C 69 % 0 lf 1011,0 hPa 0,0 l/m 0 min 0 min 281 W/m 35,6 km/h (5 Bft) 97,83 %
28.07.2017 11:06 19,9 C 21,7 C 20,6 C 70 % 0 lf 1010,9 hPa 0,0 l/m 0 min 0 min 217 W/m 29,3 km/h (5 Bft) 95,74 %
28.07.2017 11:08 19,8 C 21,1 C 20,0 C 70 % 0 lf 1010,8 hPa 0,0 l/m 0 min 0 min 225 W/m 33,5 km/h (5 Bft) 95,74 %
28.07.2017 11:10 19,7 C 21,1 C 20,0 C 70 % 0 lf 1010,9 hPa 0,0 l/m 0 min 0 min 297 W/m 29,3 km/h (5 Bft) 100,00 %
28.07.2017 11:12 19,6 C 21,1 C 19,4 C 70 % 0 lf 1010,9 hPa 0,0 l/m 0 min 0 min 237 W/m 31,4 km/h (5 Bft) 100,00 %
28.07.2017 11:14 19,4 C 21,1 C 19,4 C 70 % 0 lf 1010,9 hPa 0,0 l/m 0 min 0 min 203 W/m 25,1 km/h (4 Bft) 100,00 %
28.07.2017 11:16 19,4 C 23,9 C 21,7 C 71 % 0 lf 1010,9 hPa 0,0 l/m 2 min 0 min 448 W/m 33,5 km/h (5 Bft) 95,65 %
28.07.2017 11:18 19,4 C 26,1 C 23,3 C 71 % 0 lf 1011,0 hPa 0,0 l/m 2 min 0 min 805 W/m 29,3 km/h (5 Bft) 95,74 %
28.07.2017 11:20 19,5 C 26,1 C 23,9 C 70 % 0 lf 1011,0 hPa 0,0 l/m 2 min 0 min 843 W/m 39,7 km/h (6 Bft) 100,00 %
28.07.2017 11:22 19,6 C 23,9 C 21,7 C 70 % 0 lf 1011,0 hPa 0,0 l/m 2 min 0 min 846 W/m 41,8 km/h (6 Bft) 96,00 %
28.07.2017 11:24 19,6 C 26,1 C 22,2 C 70 % 0 lf 1011,0 hPa 0,0 l/m 2 min 0 min 850 W/m 27,2 km/h (4 Bft) 97,83 %
28.07.2017 11:26 19,7 C 27,2 C 22,8 C 71 % 0 lf 1010,9 hPa 0,0 l/m 2 min 0 min 876 W/m 27,2 km/h (4 Bft) 95,74 %
28.07.2017 11:28 19,8 C 28,3 C 22,8 C 71 % 0 lf 1010,8 hPa 0,0 l/m 2 min 0 min 873 W/m 29,3 km/h (5 Bft) 97,87 %
28.07.2017 11:30 20,0 C 27,2 C 22,8 C 70 % 0 lf 1010,8 hPa 0,0 l/m 2 min 0 min 982 W/m 33,5 km/h (5 Bft) 95,74 %
28.07.2017 11:32 20,1 C 26,1 C 22,8 C 69 % 0 lf 1010,9 hPa 0,0 l/m 2 min 0 min 781 W/m 37,7 km/h (5 Bft) 93,62 %
28.07.2017 11:34 20,2 C 26,1 C 23,3 C 69 % 0 lf 1010,9 hPa 0,0 l/m 2 min 0 min 784 W/m 33,5 km/h (5 Bft) 97,87 %
28.07.2017 11:36 20,2 C 23,3 C 21,7 C 68 % 0 lf 1011,0 hPa 0,0 l/m 2 min 0 min 698 W/m 33,5 km/h (5 Bft) 97,83 %
28.07.2017 11:38 20,1 C 21,7 C 20,6 C 68 % 0 lf 1011,0 hPa 0,0 l/m 0 min 0 min 165 W/m 35,6 km/h (5 Bft) 95,74 %
28.07.2017 11:40 19,9 C 22,8 C 21,1 C 68 % 0 lf 1011,0 hPa 0,0 l/m 0 min 0 min 156 W/m 33,5 km/h (5 Bft) 95,74 %
28.07.2017 11:42 19,9 C 25,0 C 22,8 C 68 % 0 lf 1010,9 hPa 0,0 l/m 0 min 0 min 155 W/m 31,4 km/h (5 Bft) 93,62 %
28.07.2017 11:44 19,9 C 25,6 C 23,3 C 68 % 0 lf 1010,9 hPa 0,0 l/m 0 min 0 min 155 W/m 31,4 km/h (5 Bft) 95,74 %
28.07.2017 11:46 19,9 C 25,0 C 23,3 C 68 % 0 lf 1010,9 hPa 0,0 l/m 2 min 0 min 832 W/m 31,4 km/h (5 Bft) 95,65 %
28.07.2017 11:48 20,0 C 26,1 C 24,4 C 68 % 0 lf 1011,0 hPa 0,0 l/m 2 min 0 min 911 W/m 35,6 km/h (5 Bft) 93,62 %
28.07.2017 11:50 20,1 C 26,7 C 25,6 C 68 % 0 lf 1011,0 hPa 0,0 l/m 2 min 0 min 911 W/m 35,6 km/h (5 Bft) 95,74 %
28.07.2017 11:52 20,2 C 26,7 C 25,6 C 69 % 0 lf 1011,0 hPa 0,0 l/m 2 min 0 min 911 W/m 29,3 km/h (5 Bft) 91,49 %
28.07.2017 11:54 20,3 C 27,2 C 26,1 C 68 % 0 lf 1011,0 hPa 0,0 l/m 2 min 0 min 911 W/m 29,3 km/h (5 Bft) 95,74 %
28.07.2017 11:56 20,4 C 27,8 C 27,2 C 68 % 0 lf 1011,1 hPa 0,0 l/m 2 min 0 min 1075 W/m 33,5 km/h (5 Bft) 95,74 %
28.07.2017 11:58 20,6 C 25,0 C 25,0 C 67 % 0 lf 1011,0 hPa 0,0 l/m 2 min 0 min 815 W/m 29,3 km/h (5 Bft) 93,48 %
28.07.2017 12:00 20,6 C 23,9 C 23,9 C 67 % 0 lf 1011,0 hPa 0,0 l/m 2 min 0 min 561 W/m 27,2 km/h (4 Bft) 97,87 %
28.07.2017 12:02 20,5 C 23,3 C 23,3 C 66 % 0 lf 1011,1 hPa 0,0 l/m 0 min 0 min 345 W/m 37,7 km/h (5 Bft) 97,87 %
28.07.2017 12:04 20,5 C 26,1 C 25,0 C 67 % 0 lf 1011,0 hPa 0,0 l/m 2 min 0 min 725 W/m 41,8 km/h (6 Bft) 97,87 %
28.07.2017 12:06 20,6 C 25,6 C 25,0 C 67 % 0 lf 1011,0 hPa 0,0 l/m 2 min 0 min 1081 W/m 39,7 km/h (6 Bft) 97,87 %
28.07.2017 12:08 20,6 C 26,1 C 25,6 C 67 % 0 lf 1011,0 hPa 0,0 l/m 2 min 0 min 1081 W/m 37,7 km/h (5 Bft) 95,74 %
28.07.2017 12:12 20,9 C 27,8 C 27,8 C 68 % 0 lf 1011,0 hPa 0,0 l/m 4 min 0 min 830 W/m 29,3 km/h (5 Bft) 96,77 %
28.07.2017 12:14 21,0 C 27,2 C 26,7 C 67 % 0 lf 1011,1 hPa 0,0 l/m 2 min 0 min 1072 W/m 33,5 km/h (5 Bft) 97,87 %
28.07.2017 12:16 21,0 C 25,6 C 25,0 C 66 % 0 lf 1011,0 hPa 0,0 l/m 2 min 0 min 981 W/m 31,4 km/h (5 Bft) 97,87 %
28.07.2017 12:18 21,1 C 24,4 C 23,3 C 66 % 0 lf 1011,0 hPa 0,0 l/m 2 min 0 min 763 W/m 31,4 km/h (5 Bft) 97,87 %
28.07.2017 12:20 21,0 C 22,2 C 21,7 C 65 % 0 lf 1011,2 hPa 0,0 l/m 0 min 0 min 228 W/m 39,7 km/h (6 Bft) 97,87 %
28.07.2017 12:22 20,8 C 21,7 C 21,1 C 65 % 0 lf 1011,0 hPa 0,0 l/m 0 min 0 min 242 W/m 37,7 km/h (5 Bft) 95,65 %
28.07.2017 12:24 20,6 C 21,1 C 21,1 C 65 % 0 lf 1011,1 hPa 0,0 l/m 0 min 0 min 305 W/m 31,4 km/h (5 Bft) 97,87 %
28.07.2017 12:26 20,5 C 21,1 C 21,1 C 66 % 0 lf 1011,3 hPa 0,0 l/m 0 min 0 min 329 W/m 35,6 km/h (5 Bft) 97,87 %
28.07.2017 12:28 20,3 C 21,7 C 21,1 C 67 % 0 lf 1011,1 hPa 0,0 l/m 0 min 0 min 354 W/m 27,2 km/h (4 Bft) 100,00 %
28.07.2017 12:30 20,3 C 21,7 C 21,7 C 68 % 0 lf 1011,2 hPa 0,0 l/m 0 min 0 min 389 W/m 20,9 km/h (4 Bft) 100,00 %
28.07.2017 12:32 20,2 C 22,2 C 22,2 C 68 % 0 lf 1011,2 hPa 0,0 l/m 2 min 0 min 478 W/m 31,4 km/h (5 Bft) 93,62 %
28.07.2017 12:34 20,2 C 22,8 C 22,2 C 68 % 0 lf 1011,2 hPa 0,0 l/m 2 min 0 min 421 W/m 29,3 km/h (5 Bft) 97,83 %
28.07.2017 12:36 20,2 C 22,8 C 22,2 C 68 % 0 lf 1011,2 hPa 0,0 l/m 0 min 0 min 351 W/m 29,3 km/h (5 Bft) 100,00 %
28.07.2017 12:38 20,2 C 21,7 C 21,7 C 66 % 0 lf 1011,3 hPa 0,0 l/m 0 min 0 min 268 W/m 33,5 km/h (5 Bft) 100,00 %
28.07.2017 12:40 20,1 C 21,1 C 21,1 C 67 % 0 lf 1011,3 hPa 0,0 l/m 0 min 0 min 199 W/m 20,9 km/h (4 Bft) 95,74 %
28.07.2017 12:42 20,1 C 21,1 C 20,6 C 67 % 0 lf 1011,3 hPa 0,0 l/m 0 min 0 min 180 W/m 25,1 km/h (4 Bft) 93,62 %
28.07.2017 12:44 20,1 C 21,1 C 20,6 C 68 % 0 lf 1011,3 hPa 0,0 l/m 0 min 0 min 168 W/m 20,9 km/h (4 Bft) 97,87 %
28.07.2017 12:46 20,0 C 20,6 C 20,0 C 68 % 0 lf 1011,2 hPa 0,0 l/m 0 min 0 min 189 W/m 27,2 km/h (4 Bft) 95,65 %
28.07.2017 12:48 19,9 C 20,6 C 20,0 C 67 % 0 lf 1011,2 hPa 0,0 l/m 0 min 0 min 232 W/m 27,2 km/h (4 Bft) 97,87 %
28.07.2017 12:50 19,9 C 20,6 C 20,6 C 67 % 0 lf 1011,2 hPa 0,0 l/m 0 min 0 min 279 W/m 33,5 km/h (5 Bft) 97,87 %
28.07.2017 12:52 19,9 C 20,6 C 21,1 C 68 % 0 lf 1011,3 hPa 0,0 l/m 0 min 0 min 308 W/m 31,4 km/h (5 Bft) 95,74 %
28.07.2017 12:54 19,8 C 21,1 C 20,6 C 67 % 0 lf 1011,4 hPa 0,0 l/m 0 min 0 min 302 W/m 35,6 km/h (5 Bft) 95,74 %
28.07.2017 12:56 19,8 C 20,6 C 20,6 C 67 % 0 lf 1011,5 hPa 0,0 l/m 0 min 0 min 286 W/m 31,4 km/h (5 Bft) 93,48 %
28.07.2017 12:58 19,8 C 20,6 C 20,6 C 67 % 0 lf 1011,4 hPa 0,0 l/m 0 min 0 min 284 W/m 37,7 km/h (5 Bft) 93,62 %
28.07.2017 13:00 19,7 C 21,1 C 20,6 C 69 % 0 lf 1011,4 hPa 0,0 l/m 0 min 0 min 314 W/m 23,0 km/h (4 Bft) 97,87 %
28.07.2017 13:02 19,8 C 21,7 C 21,1 C 69 % 0 lf 1011,4 hPa 0,0 l/m 0 min 0 min 327 W/m 29,3 km/h (5 Bft) 95,74 %
28.07.2017 13:04 19,8 C 21,7 C 21,1 C 70 % 0 lf 1011,4 hPa 0,0 l/m 0 min 0 min 273 W/m 20,9 km/h (4 Bft) 95,74 %
28.07.2017 13:06 19,8 C 21,7 C 21,1 C 70 % 0 lf 1011,3 hPa 0,0 l/m 0 min 0 min 287 W/m 23,0 km/h (4 Bft) 93,62 %
28.07.2017 13:08 19,8 C 22,2 C 21,1 C 68 % 0 lf 1011,2 hPa 0,0 l/m 0 min 0 min 373 W/m 27,2 km/h (4 Bft) 95,65 %
28.07.2017 13:10 19,8 C 22,8 C 22,2 C 69 % 0 lf 1011,2 hPa 0,0 l/m 2 min 0 min 439 W/m 27,2 km/h (4 Bft) 93,62 %
28.07.2017 13:12 19,9 C 22,2 C 22,2 C 69 % 0 lf 1011,2 hPa 0,0 l/m 2 min 0 min 417 W/m 27,2 km/h (4 Bft) 93,62 %
28.07.2017 13:14 19,9 C 22,2 C 22,2 C 68 % 0 lf 1011,1 hPa 0,0 l/m 0 min 0 min 393 W/m 25,1 km/h (4 Bft) 87,23 %
28.07.2017 13:16 20,0 C 22,8 C 22,2 C 68 % 0 lf 1011,1 hPa 0,0 l/m 2 min 0 min 414 W/m 23,0 km/h (4 Bft) 95,74 %
28.07.2017 13:18 20,1 C 25,0 C 23,3 C 69 % 0 lf 1011,1 hPa 0,0 l/m 2 min 0 min 436 W/m 31,4 km/h (5 Bft) 97,87 %
28.07.2017 13:20 20,2 C 24,4 C 23,3 C 68 % 0 lf 1011,2 hPa 0,0 l/m 2 min 0 min 1043 W/m 31,4 km/h (5 Bft) 93,62 %
28.07.2017 13:22 20,3 C 23,3 C 22,8 C 67 % 0 lf 1011,2 hPa 0,0 l/m 0 min 0 min 341 W/m 23,0 km/h (4 Bft) 93,48 %
28.07.2017 13:24 20,3 C 23,3 C 22,8 C 67 % 0 lf 1011,1 hPa 0,0 l/m 0 min 0 min 317 W/m 20,9 km/h (4 Bft) 91,49 %
28.07.2017 13:26 20,4 C 23,3 C 22,8 C 67 % 0 lf 1011,1 hPa 0,0 l/m 0 min 0 min 338 W/m 20,9 km/h (4 Bft) 95,74 %
28.07.2017 13:28 20,4 C 22,8 C 22,8 C 66 % 0 lf 1011,1 hPa 0,0 l/m 0 min 0 min 398 W/m 29,3 km/h (5 Bft) 93,62 %
28.07.2017 13:30 20,5 C 23,3 C 22,8 C 67 % 0 lf 1011,2 hPa 0,0 l/m 2 min 0 min 455 W/m 29,3 km/h (5 Bft) 95,74 %
28.07.2017 13:32 20,6 C 25,0 C 23,3 C 67 % 0 lf 1011,1 hPa 0,0 l/m 2 min 0 min 488 W/m 25,1 km/h (4 Bft) 89,13 %
28.07.2017 13:34 20,7 C 25,0 C 23,9 C 68 % 0 lf 1011,0 hPa 0,0 l/m 2 min 0 min 750 W/m 27,2 km/h (4 Bft) 93,62 %
28.07.2017 13:36 20,8 C 24,4 C 23,9 C 67 % 0 lf 1011,0 hPa 0,0 l/m 2 min 0 min 487 W/m 23,0 km/h (4 Bft) 93,62 %
28.07.2017 13:38 20,8 C 24,4 C 23,9 C 67 % 0 lf 1011,0 hPa 0,0 l/m 2 min 0 min 452 W/m 18,8 km/h (3 Bft) 93,62 %
28.07.2017 13:40 20,9 C 25,0 C 24,4 C 67 % 0 lf 1011,0 hPa 0,0 l/m 2 min 0 min 492 W/m 14,6 km/h (3 Bft) 95,74 %
28.07.2017 13:42 21,0 C 25,6 C 24,4 C 67 % 0 lf 1011,0 hPa 0,0 l/m 2 min 0 min 525 W/m 18,8 km/h (3 Bft) 95,74 %
28.07.2017 13:44 21,1 C 26,7 C 24,4 C 67 % 0 lf 1011,1 hPa 0,0 l/m 2 min 0 min 527 W/m 31,4 km/h (5 Bft) 95,65 %
28.07.2017 13:46 21,3 C 26,7 C 24,4 C 65 % 0 lf 1011,2 hPa 0,0 l/m 2 min 0 min 701 W/m 50,2 km/h (7 Bft) 95,74 %
28.07.2017 13:48 21,4 C 27,2 C 25,0 C 65 % 0 lf 1011,2 hPa 0,0 l/m 2 min 0 min 1104 W/m 31,4 km/h (5 Bft) 97,87 %
28.07.2017 13:50 21,6 C 27,2 C 25,0 C 64 % 0 lf 1011,2 hPa 0,0 l/m 2 min 0 min 1023 W/m 33,5 km/h (5 Bft) 97,87 %
28.07.2017 13:52 21,7 C 26,7 C 25,0 C 64 % 0 lf 1011,2 hPa 0,0 l/m 2 min 0 min 1095 W/m 33,5 km/h (5 Bft) 100,00 %
28.07.2017 13:54 21,8 C 26,1 C 24,4 C 64 % 0 lf 1011,2 hPa 0,0 l/m 2 min 0 min 882 W/m 33,5 km/h (5 Bft) 97,87 %
28.07.2017 13:56 21,9 C 27,2 C 25,0 C 63 % 0 lf 1011,2 hPa 0,0 l/m 2 min 0 min 656 W/m 35,6 km/h (5 Bft) 97,83 %
28.07.2017 13:58 22,0 C 26,1 C 25,0 C 63 % 0 lf 1011,2 hPa 0,0 l/m 2 min 0 min 657 W/m 23,0 km/h (4 Bft) 97,87 %
28.07.2017 14:00 22,1 C 25,0 C 24,4 C 63 % 0 lf 1011,2 hPa 0,0 l/m 2 min 0 min 657 W/m 31,4 km/h (5 Bft) 97,87 %
28.07.2017 14:02 22,0 C 24,4 C 24,4 C 63 % 0 lf 1011,1 hPa 0,0 l/m 2 min 0 min 588 W/m 27,2 km/h (4 Bft) 95,74 %
28.07.2017 14:04 22,0 C 24,4 C 23,9 C 62 % 0 lf 1011,2 hPa 0,0 l/m 2 min 0 min 535 W/m 27,2 km/h (4 Bft) 97,87 %
28.07.2017 14:06 21,9 C 23,9 C 23,9 C 63 % 0 lf 1011,3 hPa 0,0 l/m 0 min 0 min 372 W/m 23,0 km/h (4 Bft) 97,87 %
28.07.2017 14:08 21,9 C 24,4 C 24,4 C 64 % 0 lf 1011,3 hPa 0,0 l/m 2 min 0 min 422 W/m 25,1 km/h (4 Bft) 97,83 %
28.07.2017 14:10 21,9 C 26,1 C 25,6 C 64 % 0 lf 1011,3 hPa 0,0 l/m 2 min 0 min 452 W/m 25,1 km/h (4 Bft) 100,00 %
28.07.2017 14:12 22,0 C 27,8 C 27,2 C 65 % 0 lf 1011,3 hPa 0,0 l/m 2 min 0 min 975 W/m 31,4 km/h (5 Bft) 100,00 %
28.07.2017 14:14 22,2 C 28,3 C 28,3 C 64 % 0 lf 1011,3 hPa 0,0 l/m 2 min 0 min 1072 W/m 29,3 km/h (5 Bft) 97,87 %
28.07.2017 14:16 22,3 C 27,8 C 27,8 C 63 % 0 lf 1011,5 hPa 0,0 l/m 2 min 0 min 841 W/m 29,3 km/h (5 Bft) 97,87 %
28.07.2017 14:18 22,4 C 27,8 C 27,8 C 63 % 0 lf 1011,3 hPa 0,0 l/m 2 min 0 min 740 W/m 25,1 km/h (4 Bft) 100,00 %
28.07.2017 14:20 22,4 C 27,2 C 27,2 C 63 % 0 lf 1011,4 hPa 0,0 l/m 2 min 0 min 705 W/m 27,2 km/h (4 Bft) 100,00 %
28.07.2017 14:22 22,5 C 26,7 C 27,2 C 63 % 0 lf 1011,4 hPa 0,0 l/m 2 min 0 min 521 W/m 31,4 km/h (5 Bft) 100,00 %
28.07.2017 14:24 22,5 C 25,6 C 25,6 C 63 % 0 lf 1011,5 hPa 0,0 l/m 0 min 0 min 382 W/m 29,3 km/h (5 Bft) 100,00 %
28.07.2017 14:26 22,4 C 23,9 C 23,3 C 61 % 0 lf 1011,5 hPa 0,0 l/m 0 min 0 min 202 W/m 39,7 km/h (6 Bft) 100,00 %
28.07.2017 14:28 22,2 C 22,8 C 22,8 C 61 % 0 lf 1011,5 hPa 0,0 l/m 0 min 0 min 236 W/m 39,7 km/h (6 Bft) 100,00 %
28.07.2017 14:30 22,1 C 23,9 C 23,9 C 62 % 0 lf 1011,5 hPa 0,0 l/m 0 min 0 min 264 W/m 33,5 km/h (5 Bft) 97,87 %
28.07.2017 14:32 22,1 C 23,9 C 24,4 C 63 % 0 lf 1011,6 hPa 0,0 l/m 0 min 0 min 371 W/m 23,0 km/h (4 Bft) 100,00 %
28.07.2017 14:34 22,0 C 23,9 C 24,4 C 61 % 0 lf 1011,6 hPa 0,0 l/m 0 min 0 min 352 W/m 31,4 km/h (5 Bft) 100,00 %
28.07.2017 14:36 21,9 C 23,3 C 23,3 C 61 % 0 lf 1011,6 hPa 0,0 l/m 0 min 0 min 278 W/m 35,6 km/h (5 Bft) 100,00 %
28.07.2017 14:38 21,8 C 22,8 C 22,8 C 61 % 0 lf 1011,7 hPa 0,0 l/m 0 min 0 min 236 W/m 37,7 km/h (5 Bft) 100,00 %
28.07.2017 14:40 21,7 C 22,2 C 22,2 C 61 % 0 lf 1011,5 hPa 0,0 l/m 0 min 0 min 231 W/m 33,5 km/h (5 Bft) 97,87 %
28.07.2017 14:42 21,6 C 22,8 C 22,2 C 62 % 0 lf 1011,5 hPa 0,0 l/m 0 min 0 min 302 W/m 27,2 km/h (4 Bft) 95,65 %
28.07.2017 14:44 21,6 C 23,3 C 22,8 C 62 % 0 lf 1011,5 hPa 0,0 l/m 2 min 0 min 422 W/m 25,1 km/h (4 Bft) 97,87 %
28.07.2017 14:46 21,5 C 23,9 C 23,9 C 62 % 0 lf 1011,5 hPa 0,0 l/m 2 min 0 min 477 W/m 43,9 km/h (6 Bft) 97,87 %
28.07.2017 14:48 21,6 C 25,6 C 25,6 C 63 % 0 lf 1011,4 hPa 0,0 l/m 2 min 0 min 600 W/m 39,7 km/h (6 Bft) 97,87 %
28.07.2017 14:50 21,7 C 27,8 C 27,8 C 64 % 0 lf 1011,4 hPa 0,0 l/m 2 min 0 min 935 W/m 27,2 km/h (4 Bft) 97,87 %
28.07.2017 14:52 21,9 C 27,8 C 28,3 C 65 % 0 lf 1011,5 hPa 0,0 l/m 2 min 0 min 922 W/m 25,1 km/h (4 Bft) 97,87 %
28.07.2017 14:54 22,0 C 27,2 C 27,2 C 63 % 0 lf 1011,5 hPa 0,0 l/m 2 min 0 min 624 W/m 31,4 km/h (5 Bft) 97,83 %
28.07.2017 14:56 22,1 C 26,7 C 26,1 C 62 % 0 lf 1011,5 hPa 0,0 l/m 2 min 0 min 576 W/m 25,1 km/h (4 Bft) 95,74 %
28.07.2017 14:58 22,2 C 26,1 C 26,1 C 63 % 0 lf 1011,5 hPa 0,0 l/m 2 min 0 min 512 W/m 23,0 km/h (4 Bft) 97,87 %
28.07.2017 15:00 22,2 C 25,6 C 25,6 C 63 % 0 lf 1011,6 hPa 0,0 l/m 2 min 0 min 478 W/m 35,6 km/h (5 Bft) 95,74 %
28.07.2017 15:02 22,2 C 25,0 C 25,0 C 62 % 0 lf 1011,7 hPa 0,0 l/m 2 min 0 min 498 W/m 43,9 km/h (6 Bft) 97,87 %
28.07.2017 15:04 22,2 C 24,4 C 25,0 C 60 % 0 lf 1011,8 hPa 0,0 l/m 2 min 0 min 578 W/m 35,6 km/h (5 Bft) 97,87 %
28.07.2017 15:06 22,2 C 25,0 C 25,6 C 61 % 0 lf 1011,8 hPa 0,0 l/m 2 min 0 min 607 W/m 37,7 km/h (5 Bft) 97,83 %
28.07.2017 15:08 22,2 C 25,0 C 25,6 C 61 % 0 lf 1011,6 hPa 0,0 l/m 2 min 0 min 609 W/m 33,5 km/h (5 Bft) 97,87 %
28.07.2017 15:10 22,2 C 24,4 C 25,0 C 62 % 0 lf 1011,7 hPa 0,0 l/m 2 min 0 min 536 W/m 29,3 km/h (5 Bft) 93,62 %
28.07.2017 15:12 22,1 C 24,4 C 25,6 C 61 % 0 lf 1011,8 hPa 0,0 l/m 2 min 0 min 593 W/m 31,4 km/h (5 Bft) 97,87 %
28.07.2017 15:14 22,1 C 25,0 C 26,1 C 63 % 0 lf 1011,6 hPa 0,0 l/m 2 min 0 min 590 W/m 23,0 km/h (4 Bft) 97,87 %
28.07.2017 15:16 22,2 C 25,0 C 25,6 C 62 % 0 lf 1011,6 hPa 0,0 l/m 2 min 0 min 489 W/m 20,9 km/h (4 Bft) 97,87 %
28.07.2017 15:18 22,2 C 25,0 C 25,6 C 63 % 0 lf 1011,6 hPa 0,0 l/m 2 min 0 min 519 W/m 29,3 km/h (5 Bft) 97,83 %
28.07.2017 15:20 22,2 C 25,0 C 25,6 C 63 % 0 lf 1011,6 hPa 0,0 l/m 2 min 0 min 494 W/m 29,3 km/h (5 Bft) 97,87 %
28.07.2017 15:22 22,2 C 25,0 C 25,6 C 63 % 0 lf 1011,6 hPa 0,0 l/m 2 min 0 min 481 W/m 41,8 km/h (6 Bft) 95,74 %
28.07.2017 15:24 22,2 C 24,4 C 25,6 C 62 % 0 lf 1011,6 hPa 0,0 l/m 2 min 0 min 515 W/m 29,3 km/h (5 Bft) 97,87 %
28.07.2017 15:26 22,3 C 25,0 C 25,6 C 63 % 0 lf 1011,6 hPa 0,0 l/m 2 min 0 min 477 W/m 16,7 km/h (3 Bft) 97,87 %
28.07.2017 15:28 22,3 C 25,6 C 26,1 C 63 % 0 lf 1011,6 hPa 0,0 l/m 2 min 0 min 492 W/m 20,9 km/h (4 Bft) 97,87 %
28.07.2017 15:30 22,4 C 26,1 C 26,1 C 63 % 0 lf 1011,6 hPa 0,0 l/m 2 min 0 min 530 W/m 20,9 km/h (4 Bft) 93,48 %
28.07.2017 15:32 22,4 C 26,7 C 26,7 C 63 % 0 lf 1011,6 hPa 0,0 l/m 2 min 0 min 578 W/m 27,2 km/h (4 Bft) 97,87 %
28.07.2017 15:34 22,6 C 26,1 C 26,7 C 62 % 0 lf 1011,6 hPa 0,0 l/m 2 min 0 min 660 W/m 29,3 km/h (5 Bft) 97,87 %
28.07.2017 15:36 22,6 C 26,1 C 27,2 C 61 % 0 lf 1011,6 hPa 0,0 l/m 2 min 0 min 716 W/m 37,7 km/h (5 Bft) 97,87 %
28.07.2017 15:38 22,7 C 25,6 C 26,1 C 60 % 0 lf 1011,6 hPa 0,0 l/m 2 min 0 min 526 W/m 29,3 km/h (5 Bft) 97,87 %
28.07.2017 15:40 22,7 C 25,0 C 26,1 C 61 % 0 lf 1011,8 hPa 0,0 l/m 2 min 0 min 420 W/m 27,2 km/h (4 Bft) 89,36 %
28.07.2017 15:42 22,7 C 25,0 C 25,6 C 60 % 0 lf 1011,6 hPa 0,0 l/m 2 min 0 min 424 W/m 27,2 km/h (4 Bft) 95,65 %
28.07.2017 15:44 22,6 C 25,0 C 25,6 C 61 % 0 lf 1011,6 hPa 0,0 l/m 2 min 0 min 425 W/m 27,2 km/h (4 Bft) 91,49 %
28.07.2017 15:46 22,7 C 25,6 C 25,6 C 62 % 0 lf 1011,6 hPa 0,0 l/m 2 min 0 min 483 W/m 31,4 km/h (5 Bft) 93,62 %
28.07.2017 15:48 22,7 C 25,6 C 25,6 C 61 % 0 lf 1011,6 hPa 0,0 l/m 2 min 0 min 397 W/m 20,9 km/h (4 Bft) 93,62 %
28.07.2017 15:50 22,7 C 24,4 C 25,0 C 59 % 0 lf 1011,6 hPa 0,0 l/m 0 min 0 min 361 W/m 27,2 km/h (4 Bft) 95,74 %
28.07.2017 15:52 22,6 C 23,9 C 24,4 C 59 % 0 lf 1011,6 hPa 0,0 l/m 0 min 0 min 328 W/m 37,7 km/h (5 Bft) 93,62 %
28.07.2017 15:54 22,6 C 24,4 C 23,9 C 59 % 0 lf 1011,6 hPa 0,0 l/m 0 min 0 min 324 W/m 25,1 km/h (4 Bft) 95,65 %
28.07.2017 15:56 22,5 C 23,9 C 23,9 C 59 % 0 lf 1011,7 hPa 0,0 l/m 2 min 0 min 382 W/m 31,4 km/h (5 Bft) 91,49 %
28.07.2017 15:58 22,5 C 24,4 C 24,4 C 60 % 0 lf 1011,6 hPa 0,0 l/m 2 min 0 min 465 W/m 27,2 km/h (4 Bft) 93,62 %
28.07.2017 16:00 22,4 C 24,4 C 24,4 C 59 % 0 lf 1011,8 hPa 0,0 l/m 2 min 0 min 436 W/m 35,6 km/h (5 Bft) 91,49 %
28.07.2017 16:02 22,4 C 23,9 C 24,4 C 59 % 0 lf 1011,7 hPa 0,0 l/m 2 min 0 min 433 W/m 27,2 km/h (4 Bft) 91,49 %
28.07.2017 16:04 22,4 C 24,4 C 25,0 C 60 % 0 lf 1011,6 hPa 0,0 l/m 2 min 0 min 495 W/m 27,2 km/h (4 Bft) 95,65 %
28.07.2017 16:06 22,4 C 23,9 C 25,0 C 60 % 0 lf 1011,7 hPa 0,0 l/m 2 min 0 min 433 W/m 18,8 km/h (3 Bft) 91,49 %
28.07.2017 16:08 22,4 C 24,4 C 25,0 C 60 % 0 lf 1011,8 hPa 0,0 l/m 2 min 0 min 423 W/m 31,4 km/h (5 Bft) 93,62 %
28.07.2017 16:10 22,4 C 24,4 C 24,4 C 60 % 0 lf 1011,8 hPa 0,0 l/m 2 min 0 min 395 W/m 23,0 km/h (4 Bft) 93,62 %
28.07.2017 16:12 22,4 C 24,4 C 25,0 C 60 % 0 lf 1011,9 hPa 0,0 l/m 2 min 0 min 453 W/m 16,7 km/h (3 Bft) 95,74 %
28.07.2017 16:14 22,4 C 25,0 C 25,0 C 60 % 0 lf 1011,7 hPa 0,0 l/m 2 min 0 min 473 W/m 23,0 km/h (4 Bft) 91,49 %
28.07.2017 16:16 22,5 C 25,0 C 25,0 C 59 % 0 lf 1011,9 hPa 0,0 l/m 2 min 0 min 399 W/m 33,5 km/h (5 Bft) 93,48 %
28.07.2017 16:18 22,5 C 25,0 C 25,0 C 59 % 0 lf 1011,9 hPa 0,0 l/m 2 min 0 min 527 W/m 33,5 km/h (5 Bft) 95,74 %
28.07.2017 16:20 22,5 C 25,0 C 24,4 C 59 % 0 lf 1011,9 hPa 0,0 l/m 2 min 0 min 443 W/m 29,3 km/h (5 Bft) 89,36 %
28.07.2017 16:22 22,6 C 25,0 C 24,4 C 59 % 0 lf 1011,9 hPa 0,0 l/m 2 min 0 min 400 W/m 33,5 km/h (5 Bft) 97,87 %
28.07.2017 16:24 22,5 C 25,0 C 25,0 C 58 % 0 lf 1011,7 hPa 0,0 l/m 2 min 0 min 440 W/m 31,4 km/h (5 Bft) 95,74 %
28.07.2017 16:26 22,6 C 25,6 C 26,7 C 59 % 0 lf 1011,7 hPa 0,0 l/m 2 min 0 min 455 W/m 33,5 km/h (5 Bft) 95,74 %
28.07.2017 16:28 22,7 C 25,6 C 27,2 C 59 % 0 lf 1011,7 hPa 0,0 l/m 2 min 0 min 845 W/m 31,4 km/h (5 Bft) 97,83 %
28.07.2017 16:30 22,7 C 25,6 C 26,1 C 59 % 0 lf 1011,6 hPa 0,0 l/m 2 min 0 min 571 W/m 25,1 km/h (4 Bft) 97,87 %
28.07.2017 16:32 22,8 C 26,1 C 26,1 C 59 % 0 lf 1011,6 hPa 0,0 l/m 2 min 0 min 407 W/m 23,0 km/h (4 Bft) 95,74 %
28.07.2017 16:34 22,8 C 25,6 C 26,1 C 59 % 0 lf 1011,6 hPa 0,0 l/m 2 min 0 min 437 W/m 18,8 km/h (3 Bft) 100,00 %
28.07.2017 16:36 22,9 C 25,6 C 26,7 C 60 % 0 lf 1011,5 hPa 0,0 l/m 2 min 0 min 545 W/m 25,1 km/h (4 Bft) 97,87 %
28.07.2017 16:38 23,0 C 25,6 C 26,1 C 59 % 0 lf 1011,6 hPa 0,0 l/m 2 min 0 min 467 W/m 25,1 km/h (4 Bft) 95,74 %
28.07.2017 16:40 23,0 C 25,0 C 25,6 C 57 % 0 lf 1011,6 hPa 0,0 l/m 2 min 0 min 416 W/m 29,3 km/h (5 Bft) 97,83 %
28.07.2017 16:42 23,0 C 24,4 C 25,0 C 58 % 0 lf 1011,7 hPa 0,0 l/m 2 min 0 min 399 W/m 29,3 km/h (5 Bft) 97,87 %
28.07.2017 16:44 22,9 C 23,9 C 25,0 C 57 % 0 lf 1011,6 hPa 0,0 l/m 2 min 0 min 359 W/m 35,6 km/h (5 Bft) 95,74 %
28.07.2017 16:46 22,9 C 23,9 C 24,4 C 58 % 0 lf 1011,6 hPa 0,0 l/m 2 min 0 min 339 W/m 25,1 km/h (4 Bft) 95,74 %
28.07.2017 16:48 22,8 C 24,4 C 24,4 C 58 % 0 lf 1011,6 hPa 0,0 l/m 2 min 0 min 352 W/m 29,3 km/h (5 Bft) 97,87 %
28.07.2017 16:50 22,8 C 24,4 C 24,4 C 59 % 0 lf 1011,6 hPa 0,0 l/m 2 min 0 min 342 W/m 20,9 km/h (4 Bft) 95,74 %
28.07.2017 16:52 22,8 C 24,4 C 24,4 C 59 % 0 lf 1011,6 hPa 0,0 l/m 2 min 0 min 328 W/m 16,7 km/h (3 Bft) 95,65 %
28.07.2017 16:54 22,8 C 24,4 C 24,4 C 59 % 0 lf 1011,5 hPa 0,0 l/m 2 min 0 min 326 W/m 23,0 km/h (4 Bft) 100,00 %
28.07.2017 16:56 22,8 C 23,9 C 24,4 C 59 % 0 lf 1011,6 hPa 0,0 l/m 2 min 0 min 374 W/m 16,7 km/h (3 Bft) 97,87 %
28.07.2017 16:58 22,8 C 25,0 C 25,0 C 60 % 0 lf 1011,6 hPa 0,0 l/m 2 min 0 min 433 W/m 31,4 km/h (5 Bft) 100,00 %
28.07.2017 17:00 22,8 C 24,4 C 25,0 C 59 % 0 lf 1011,6 hPa 0,0 l/m 2 min 0 min 410 W/m 29,3 km/h (5 Bft) 95,74 %
28.07.2017 17:03 22,8 C 24,4 C 25,0 C 58 % 0 lf 1011,5 hPa 0,0 l/m 3 min 0 min 375 W/m 23,0 km/h (4 Bft) 97,37 %
28.07.2017 17:04 22,8 C 24,4 C 25,0 C 59 % 0 lf 1011,5 hPa 0,0 l/m 1 min 0 min 364 W/m 14,6 km/h (3 Bft) 100,00 %
28.07.2017 17:06 22,8 C 24,4 C 24,4 C 58 % 0 lf 1011,5 hPa 0,0 l/m 2 min 0 min 326 W/m 29,3 km/h (5 Bft) 97,87 %
28.07.2017 17:08 22,8 C 24,4 C 24,4 C 59 % 0 lf 1011,5 hPa 0,0 l/m 0 min 0 min 291 W/m 18,8 km/h (3 Bft) 97,83 %
28.07.2017 17:10 22,8 C 23,9 C 24,4 C 59 % 0 lf 1011,6 hPa 0,0 l/m 0 min 0 min 253 W/m 20,9 km/h (4 Bft) 100,00 %
28.07.2017 17:12 22,8 C 23,9 C 23,9 C 59 % 0 lf 1011,6 hPa 0,0 l/m 0 min 0 min 214 W/m 20,9 km/h (4 Bft) 97,87 %
28.07.2017 17:14 22,8 C 23,3 C 23,3 C 58 % 0 lf 1011,6 hPa 0,0 l/m 0 min 0 min 194 W/m 35,6 km/h (5 Bft) 95,74 %
28.07.2017 17:16 22,7 C 23,3 C 23,3 C 58 % 0 lf 1011,7 hPa 0,0 l/m 0 min 0 min 212 W/m 35,6 km/h (5 Bft) 97,87 %
28.07.2017 17:18 22,6 C 23,3 C 22,8 C 57 % 0 lf 1011,6 hPa 0,0 l/m 0 min 0 min 226 W/m 29,3 km/h (5 Bft) 100,00 %
28.07.2017 17:20 22,6 C 23,3 C 22,8 C 58 % 0 lf 1011,6 hPa 0,0 l/m 0 min 0 min 212 W/m 20,9 km/h (4 Bft) 98,28 %
28.07.2017 17:22 22,6 C 23,3 C 22,8 C 58 % 0 lf 1011,6 hPa 0,0 l/m 0 min 0 min 201 W/m 20,9 km/h (4 Bft) 100,00 %
28.07.2017 17:24 22,5 C 23,3 C 22,8 C 59 % 0 lf 1011,6 hPa 0,0 l/m 0 min 0 min 189 W/m 20,9 km/h (4 Bft) 100,00 %
28.07.2017 17:26 22,4 C 22,8 C 22,8 C 59 % 0 lf 1011,8 hPa 0,0 l/m 0 min 0 min 176 W/m 29,3 km/h (5 Bft) 100,00 %
28.07.2017 17:28 22,4 C 22,8 C 22,2 C 59 % 0 lf 1011,6 hPa 0,0 l/m 0 min 0 min 166 W/m 27,2 km/h (4 Bft) 100,00 %
28.07.2017 17:30 22,3 C 22,8 C 22,2 C 60 % 0 lf 1011,7 hPa 0,0 l/m 0 min 0 min 150 W/m 23,0 km/h (4 Bft) 95,74 %
28.07.2017 17:32 22,3 C 22,8 C 22,2 C 59 % 0 lf 1011,8 hPa 0,0 l/m 0 min 0 min 127 W/m 31,4 km/h (5 Bft) 97,83 %
28.07.2017 17:34 22,2 C 22,8 C 21,7 C 60 % 0 lf 1011,8 hPa 0,0 l/m 0 min 0 min 116 W/m 27,2 km/h (4 Bft) 95,74 %
28.07.2017 17:36 22,2 C 22,2 C 21,7 C 60 % 0 lf 1011,9 hPa 0,0 l/m 0 min 0 min 109 W/m 20,9 km/h (4 Bft) 100,00 %
28.07.2017 17:38 22,2 C 22,2 C 21,1 C 59 % 0 lf 1011,9 hPa 0,0 l/m 0 min 0 min 97 W/m 25,1 km/h (4 Bft) 97,87 %
28.07.2017 17:40 22,1 C 22,2 C 21,1 C 59 % 0 lf 1011,9 hPa 0,0 l/m 0 min 0 min 85 W/m 27,2 km/h (4 Bft) 100,00 %
28.07.2017 17:43 21,9 C 21,7 C 21,1 C 60 % 0 lf 1011,8 hPa 0,0 l/m 0 min 0 min 72 W/m 31,4 km/h (5 Bft) 98,78 %
28.07.2017 17:44 21,9 C 21,7 C 20,6 C 60 % 0 lf 1011,8 hPa 0,0 l/m 0 min 0 min 56 W/m 14,6 km/h (3 Bft) 90,91 %
28.07.2017 17:46 21,9 C 21,1 C 20,6 C 60 % 0 lf 1011,9 hPa 0,0 l/m 0 min 0 min 53 W/m 33,5 km/h (5 Bft) 100,00 %
28.07.2017 17:48 21,8 C 21,1 C 20,0 C 61 % 0 lf 1011,9 hPa 0,0 l/m 0 min 2 min 76 W/m 18,8 km/h (3 Bft) 95,74 %
28.07.2017 17:50 21,7 C 21,1 C 20,6 C 61 % 0 lf 1011,9 hPa 0,0 l/m 0 min 0 min 101 W/m 25,1 km/h (4 Bft) 98,28 %
28.07.2017 17:52 21,6 C 21,1 C 20,6 C 61 % 0 lf 1011,9 hPa 0,0 l/m 0 min 0 min 125 W/m 27,2 km/h (4 Bft) 92,31 %
28.07.2017 17:54 21,6 C 21,7 C 20,6 C 61 % 0 lf 1011,8 hPa 0,0 l/m 0 min 0 min 139 W/m 35,6 km/h (5 Bft) 93,48 %
28.07.2017 17:56 21,5 C 21,7 C 21,1 C 61 % 0 lf 1011,9 hPa 0,0 l/m 0 min 0 min 146 W/m 29,3 km/h (5 Bft) 93,62 %
28.07.2017 17:58 21,5 C 21,7 C 21,1 C 62 % 0 lf 1012,0 hPa 0,0 l/m 0 min 0 min 158 W/m 31,4 km/h (5 Bft) 95,74 %
28.07.2017 18:00 21,4 C 21,7 C 21,1 C 62 % 0 lf 1012,0 hPa 0,0 l/m 0 min 0 min 162 W/m 31,4 km/h (5 Bft) 95,74 %
28.07.2017 18:02 21,4 C 21,7 C 21,1 C 62 % 0 lf 1012,1 hPa 0,0 l/m 0 min 0 min 163 W/m 29,3 km/h (5 Bft) 91,49 %
28.07.2017 18:04 21,4 C 22,2 C 21,1 C 62 % 0 lf 1012,1 hPa 0,0 l/m 0 min 0 min 167 W/m 25,1 km/h (4 Bft) 91,49 %
28.07.2017 18:06 21,4 C 22,2 C 21,7 C 62 % 0 lf 1012,1 hPa 0,0 l/m 0 min 0 min 174 W/m 25,1 km/h (4 Bft) 93,48 %
28.07.2017 18:08 21,4 C 22,2 C 21,7 C 63 % 0 lf 1012,1 hPa 0,0 l/m 0 min 0 min 141 W/m 14,6 km/h (3 Bft) 93,62 %
28.07.2017 18:12 21,4 C 22,2 C 21,1 C 63 % 0 lf 1012,1 hPa 0,0 l/m 0 min 0 min 113 W/m 20,9 km/h (4 Bft) 93,81 %
28.07.2017 18:14 21,4 C 22,2 C 21,1 C 63 % 0 lf 1012,2 hPa 0,0 l/m 0 min 0 min 113 W/m 14,6 km/h (3 Bft) 91,30 %
28.07.2017 18:16 21,4 C 21,7 C 21,1 C 62 % 0 lf 1012,2 hPa 0,0 l/m 0 min 0 min 113 W/m 23,0 km/h (4 Bft) 93,62 %
28.07.2017 18:18 21,4 C 21,7 C 21,1 C 62 % 0 lf 1012,1 hPa 0,0 l/m 0 min 0 min 110 W/m 18,8 km/h (3 Bft) 91,49 %
28.07.2017 18:20 21,4 C 21,7 C 21,1 C 63 % 0 lf 1012,1 hPa 0,0 l/m 0 min 0 min 109 W/m 16,7 km/h (3 Bft) 93,62 %
28.07.2017 18:22 21,4 C 21,7 C 21,1 C 63 % 0 lf 1012,1 hPa 0,0 l/m 0 min 0 min 113 W/m 23,0 km/h (4 Bft) 91,49 %
28.07.2017 18:24 21,4 C 22,2 C 21,1 C 63 % 0 lf 1012,2 hPa 0,0 l/m 0 min 0 min 134 W/m 14,6 km/h (3 Bft) 91,49 %
28.07.2017 18:26 21,4 C 22,2 C 21,1 C 63 % 0 lf 1012,1 hPa 0,0 l/m 0 min 0 min 186 W/m 18,8 km/h (3 Bft) 95,65 %
28.07.2017 18:28 21,4 C 22,2 C 21,7 C 63 % 0 lf 1012,1 hPa 0,0 l/m 0 min 0 min 210 W/m 18,8 km/h (3 Bft) 95,74 %
28.07.2017 18:30 21,4 C 22,2 C 21,7 C 63 % 0 lf 1012,1 hPa 0,0 l/m 0 min 0 min 183 W/m 23,0 km/h (4 Bft) 95,74 %
28.07.2017 18:32 21,4 C 22,2 C 21,7 C 63 % 0 lf 1012,1 hPa 0,0 l/m 0 min 0 min 151 W/m 12,6 km/h (3 Bft) 95,74 %
28.07.2017 18:34 21,4 C 22,2 C 21,1 C 64 % 0 lf 1012,1 hPa 0,0 l/m 0 min 0 min 132 W/m 18,8 km/h (3 Bft) 93,62 %
28.07.2017 18:36 21,4 C 22,2 C 21,1 C 64 % 0 lf 1012,1 hPa 0,0 l/m 0 min 0 min 122 W/m 20,9 km/h (4 Bft) 87,23 %
28.07.2017 18:38 21,4 C 22,2 C 21,1 C 64 % 0 lf 1012,2 hPa 0,0 l/m 0 min 0 min 122 W/m 14,6 km/h (3 Bft) 93,48 %
28.07.2017 18:40 21,4 C 21,7 C 21,1 C 63 % 0 lf 1012,2 hPa 0,0 l/m 0 min 0 min 130 W/m 18,8 km/h (3 Bft) 93,62 %
28.07.2017 18:42 21,4 C 22,2 C 21,1 C 63 % 0 lf 1012,2 hPa 0,0 l/m 0 min 0 min 141 W/m 18,8 km/h (3 Bft) 93,62 %
28.07.2017 18:44 21,4 C 22,2 C 21,1 C 63 % 0 lf 1012,1 hPa 0,0 l/m 0 min 0 min 151 W/m 14,6 km/h (3 Bft) 95,74 %
28.07.2017 18:46 21,4 C 22,2 C 21,1 C 64 % 0 lf 1012,1 hPa 0,0 l/m 0 min 0 min 157 W/m 12,6 km/h (3 Bft) 97,87 %
28.07.2017 18:48 21,4 C 22,2 C 21,1 C 64 % 0 lf 1012,1 hPa 0,0 l/m 2 min 0 min 217 W/m 12,6 km/h (3 Bft) 97,87 %
28.07.2017 18:50 21,4 C 22,8 C 21,7 C 65 % 0 lf 1012,1 hPa 0,0 l/m 2 min 0 min 293 W/m 12,6 km/h (3 Bft) 95,65 %
28.07.2017 18:52 21,4 C 22,8 C 22,2 C 64 % 0 lf 1012,1 hPa 0,0 l/m 2 min 0 min 261 W/m 14,6 km/h (3 Bft) 97,87 %
28.07.2017 18:54 21,5 C 22,8 C 22,2 C 64 % 0 lf 1012,1 hPa 0,0 l/m 2 min 0 min 234 W/m 12,6 km/h (3 Bft) 93,62 %
28.07.2017 18:56 21,5 C 22,8 C 21,7 C 64 % 0 lf 1011,9 hPa 0,0 l/m 0 min 0 min 174 W/m 12,6 km/h (3 Bft) 100,00 %
28.07.2017 18:58 21,5 C 22,8 C 21,7 C 64 % 0 lf 1012,0 hPa 0,0 l/m 0 min 0 min 156 W/m 10,5 km/h (2 Bft) 95,74 %
28.07.2017 19:00 21,6 C 22,8 C 21,7 C 64 % 0 lf 1012,1 hPa 0,0 l/m 2 min 0 min 200 W/m 14,6 km/h (3 Bft) 100,00 %
28.07.2017 19:02 21,6 C 22,2 C 21,1 C 64 % 0 lf 1012,0 hPa 0,0 l/m 2 min 0 min 234 W/m 18,8 km/h (3 Bft) 97,83 %
28.07.2017 19:04 21,6 C 22,2 C 21,1 C 64 % 0 lf 1012,0 hPa 0,0 l/m 2 min 0 min 182 W/m 20,9 km/h (4 Bft) 97,87 %
28.07.2017 19:06 21,6 C 22,2 C 21,1 C 64 % 0 lf 1011,9 hPa 0,0 l/m 0 min 0 min 151 W/m 10,5 km/h (2 Bft) 100,00 %
28.07.2017 19:08 21,6 C 22,2 C 21,1 C 64 % 0 lf 1011,9 hPa 0,0 l/m 0 min 0 min 119 W/m 14,6 km/h (3 Bft) 100,00 %
28.07.2017 19:10 21,6 C 22,2 C 21,1 C 64 % 0 lf 1012,0 hPa 0,0 l/m 0 min 0 min 91 W/m 20,9 km/h (4 Bft) 93,62 %
28.07.2017 19:12 21,6 C 21,7 C 20,6 C 63 % 0 lf 1011,9 hPa 0,0 l/m 0 min 0 min 73 W/m 16,7 km/h (3 Bft) 97,83 %
28.07.2017 19:14 21,6 C 21,7 C 20,6 C 64 % 0 lf 1011,9 hPa 0,0 l/m 0 min 0 min 61 W/m 12,6 km/h (3 Bft) 97,87 %
28.07.2017 19:16 21,6 C 21,7 C 20,6 C 64 % 0 lf 1011,9 hPa 0,0 l/m 0 min 0 min 50 W/m 16,7 km/h (3 Bft) 95,74 %
28.07.2017 19:18 21,6 C 21,7 C 20,6 C 64 % 0 lf 1011,9 hPa 0,0 l/m 0 min 0 min 43 W/m 10,5 km/h (2 Bft) 97,87 %
28.07.2017 19:20 21,6 C 21,1 C 20,0 C 64 % 0 lf 1012,0 hPa 0,0 l/m 0 min 0 min 39 W/m 18,8 km/h (3 Bft) 93,62 %
28.07.2017 19:22 21,6 C 21,1 C 20,0 C 64 % 0 lf 1011,9 hPa 0,0 l/m 0 min 0 min 36 W/m 14,6 km/h (3 Bft) 97,87 %
28.07.2017 19:24 21,5 C 21,1 C 20,0 C 63 % 0 lf 1011,9 hPa 0,0 l/m 0 min 0 min 35 W/m 18,8 km/h (3 Bft) 95,65 %
28.07.2017 19:26 21,4 C 21,1 C 20,0 C 63 % 0 lf 1012,0 hPa 0,0 l/m 0 min 0 min 35 W/m 20,9 km/h (4 Bft) 95,74 %
28.07.2017 19:28 21,4 C 21,1 C 20,0 C 63 % 0 lf 1011,9 hPa 0,0 l/m 0 min 0 min 35 W/m 20,9 km/h (4 Bft) 93,62 %
28.07.2017 19:30 21,4 C 21,1 C 20,0 C 63 % 0 lf 1011,9 hPa 0,0 l/m 0 min 0 min 36 W/m 16,7 km/h (3 Bft) 93,62 %
28.07.2017 19:32 21,3 C 21,1 C 20,0 C 63 % 0 lf 1012,0 hPa 0,0 l/m 0 min 0 min 46 W/m 18,8 km/h (3 Bft) 97,87 %
28.07.2017 19:34 21,3 C 21,1 C 20,0 C 64 % 0 lf 1011,9 hPa 0,0 l/m 0 min 0 min 64 W/m 12,6 km/h (3 Bft) 97,87 %
28.07.2017 19:36 21,3 C 21,1 C 20,0 C 64 % 0 lf 1011,9 hPa 0,0 l/m 0 min 0 min 87 W/m 18,8 km/h (3 Bft) 97,83 %
28.07.2017 19:38 21,3 C 21,1 C 20,6 C 63 % 0 lf 1012,0 hPa 0,0 l/m 0 min 0 min 97 W/m 16,7 km/h (3 Bft) 97,87 %
28.07.2017 19:40 21,3 C 21,1 C 20,6 C 64 % 0 lf 1011,9 hPa 0,0 l/m 0 min 0 min 90 W/m 20,9 km/h (4 Bft) 97,87 %
28.07.2017 19:42 21,2 C 21,1 C 20,6 C 64 % 0 lf 1011,9 hPa 0,0 l/m 0 min 0 min 77 W/m 18,8 km/h (3 Bft) 95,74 %
28.07.2017 19:44 21,2 C 21,1 C 20,0 C 64 % 0 lf 1012,0 hPa 0,0 l/m 0 min 0 min 67 W/m 12,6 km/h (3 Bft) 91,49 %
28.07.2017 19:46 21,2 C 21,1 C 20,0 C 64 % 0 lf 1011,9 hPa 0,0 l/m 0 min 0 min 63 W/m 12,6 km/h (3 Bft) 97,87 %
28.07.2017 19:48 21,2 C 21,1 C 20,0 C 65 % 0 lf 1012,0 hPa 0,0 l/m 0 min 0 min 57 W/m 12,6 km/h (3 Bft) 97,83 %
28.07.2017 19:50 21,2 C 21,1 C 20,0 C 64 % 0 lf 1012,0 hPa 0,0 l/m 0 min 0 min 51 W/m 10,5 km/h (2 Bft) 97,87 %
28.07.2017 19:52 21,2 C 21,1 C 20,0 C 64 % 0 lf 1012,0 hPa 0,0 l/m 0 min 0 min 47 W/m 14,6 km/h (3 Bft) 97,87 %
28.07.2017 19:54 21,2 C 21,1 C 20,0 C 64 % 0 lf 1012,0 hPa 0,0 l/m 0 min 0 min 47 W/m 14,6 km/h (3 Bft) 97,87 %
28.07.2017 19:56 21,2 C 21,1 C 20,0 C 64 % 0 lf 1012,0 hPa 0,0 l/m 0 min 0 min 47 W/m 18,8 km/h (3 Bft) 95,74 %
28.07.2017 19:58 21,2 C 21,1 C 20,0 C 65 % 0 lf 1012,0 hPa 0,0 l/m 0 min 0 min 48 W/m 14,6 km/h (3 Bft) 95,74 %
28.07.2017 20:00 21,1 C 21,1 C 20,0 C 65 % 0 lf 1012,0 hPa 0,0 l/m 0 min 0 min 49 W/m 16,7 km/h (3 Bft) 95,65 %
28.07.2017 20:02 21,1 C 21,1 C 20,0 C 65 % 0 lf 1012,0 hPa 0,0 l/m 0 min 0 min 47 W/m 14,6 km/h (3 Bft) 93,62 %
28.07.2017 20:04 21,1 C 21,1 C 20,0 C 65 % 0 lf 1012,0 hPa 0,0 l/m 0 min 0 min 43 W/m 23,0 km/h (4 Bft) 95,74 %
28.07.2017 20:06 21,1 C 20,6 C 19,4 C 65 % 0 lf 1012,0 hPa 0,0 l/m 0 min 0 min 37 W/m 10,5 km/h (2 Bft) 95,74 %
28.07.2017 20:08 21,1 C 20,6 C 19,4 C 66 % 0 lf 1012,0 hPa 0,0 l/m 0 min 0 min 33 W/m 12,6 km/h (3 Bft) 97,87 %
28.07.2017 20:10 21,0 C 20,6 C 19,4 C 65 % 0 lf 1012,1 hPa 0,0 l/m 0 min 0 min 29 W/m 16,7 km/h (3 Bft) 97,87 %
28.07.2017 20:12 21,0 C 20,6 C 19,4 C 65 % 0 lf 1012,1 hPa 0,0 l/m 0 min 0 min 26 W/m 16,7 km/h (3 Bft) 95,65 %
28.07.2017 20:14 21,0 C 20,6 C 19,4 C 65 % 0 lf 1012,1 hPa 0,0 l/m 0 min 0 min 25 W/m 18,8 km/h (3 Bft) 93,62 %
28.07.2017 20:16 20,9 C 20,6 C 19,4 C 65 % 0 lf 1012,1 hPa 0,0 l/m 0 min 0 min 26 W/m 12,6 km/h (3 Bft) 97,87 %
28.07.2017 20:18 20,9 C 20,6 C 19,4 C 65 % 1 lf 1012,1 hPa 0,0 l/m 0 min 0 min 27 W/m 14,6 km/h (3 Bft) 97,87 %
28.07.2017 20:20 20,9 C 20,6 C 18,9 C 65 % 1 lf 1012,1 hPa 0,0 l/m 0 min 2 min 26 W/m 16,7 km/h (3 Bft) 95,74 %
28.07.2017 20:22 20,9 C 20,0 C 18,9 C 66 % 0 lf 1012,2 hPa 0,0 l/m 0 min 2 min 24 W/m 18,8 km/h (3 Bft) 97,87 %
28.07.2017 20:24 20,9 C 20,6 C 18,9 C 66 % 0 lf 1012,2 hPa 0,0 l/m 0 min 0 min 21 W/m 12,6 km/h (3 Bft) 97,83 %
28.07.2017 20:26 20,8 C 20,6 C 18,9 C 66 % 0 lf 1012,2 hPa 0,0 l/m 0 min 0 min 19 W/m 16,7 km/h (3 Bft) 95,74 %
28.07.2017 20:28 20,8 C 20,6 C 18,9 C 66 % 0 lf 1012,2 hPa 0,0 l/m 0 min 0 min 18 W/m 16,7 km/h (3 Bft) 97,87 %
28.07.2017 20:30 20,8 C 20,0 C 18,9 C 66 % 0 lf 1012,3 hPa 0,0 l/m 0 min 0 min 17 W/m 14,6 km/h (3 Bft) 100,00 %
28.07.2017 20:32 20,7 C 20,0 C 18,9 C 66 % 0 lf 1012,3 hPa 0,0 l/m 0 min 0 min 16 W/m 16,7 km/h (3 Bft) 100,00 %
28.07.2017 20:34 20,7 C 20,0 C 18,9 C 66 % 0 lf 1012,3 hPa 0,0 l/m 0 min 0 min 17 W/m 14,6 km/h (3 Bft) 100,00 %
28.07.2017 20:36 20,7 C 20,0 C 18,9 C 66 % 1 lf 1012,3 hPa 0,0 l/m 0 min 0 min 18 W/m 18,8 km/h (3 Bft) 97,87 %
28.07.2017 20:38 20,7 C 20,0 C 18,9 C 66 % 0 lf 1012,4 hPa 0,0 l/m 0 min 0 min 18 W/m 18,8 km/h (3 Bft) 100,00 %
28.07.2017 20:40 20,6 C 20,0 C 18,3 C 66 % 1 lf 1012,4 hPa 0,0 l/m 0 min 2 min 17 W/m 20,9 km/h (4 Bft) 100,00 %
28.07.2017 20:42 20,6 C 20,0 C 18,3 C 67 % 1 lf 1012,4 hPa 0,0 l/m 0 min 2 min 16 W/m 29,3 km/h (5 Bft) 100,00 %
28.07.2017 20:44 20,5 C 19,4 C 18,3 C 66 % 0 lf 1012,5 hPa 0,0 l/m 0 min 2 min 16 W/m 23,0 km/h (4 Bft) 97,87 %
28.07.2017 20:46 20,4 C 19,4 C 18,3 C 67 % 0 lf 1012,5 hPa 0,0 l/m 0 min 0 min 16 W/m 18,8 km/h (3 Bft) 95,65 %
28.07.2017 20:48 20,4 C 19,4 C 17,8 C 67 % 0 lf 1012,6 hPa 0,0 l/m 0 min 0 min 16 W/m 23,0 km/h (4 Bft) 97,87 %
28.07.2017 20:50 20,3 C 19,4 C 17,8 C 67 % 5 lf 1012,7 hPa 0,0 l/m 0 min 2 min 15 W/m 23,0 km/h (4 Bft) 95,74 %
28.07.2017 20:52 20,2 C 19,4 C 17,2 C 68 % 3 lf 1012,7 hPa 0,0 l/m 0 min 2 min 14 W/m 23,0 km/h (4 Bft) 95,74 %
28.07.2017 20:54 20,2 C 18,9 C 17,2 C 68 % 14 lf 1012,8 hPa 0,0 l/m 0 min 2 min 13 W/m 25,1 km/h (4 Bft) 93,62 %
28.07.2017 20:56 20,1 C 18,9 C 16,7 C 69 % 14 lf 1012,8 hPa 0,0 l/m 0 min 2 min 12 W/m 20,9 km/h (4 Bft) 97,87 %
28.07.2017 20:58 19,9 C 18,3 C 16,1 C 69 % 15 lf 1012,7 hPa 0,0 l/m 0 min 2 min 11 W/m 25,1 km/h (4 Bft) 97,83 %
28.07.2017 21:00 19,9 C 17,8 C 16,1 C 70 % 15 lf 1012,8 hPa 0,0 l/m 0 min 2 min 9 W/m 16,7 km/h (3 Bft) 97,87 %
28.07.2017 21:02 19,8 C 17,8 C 16,1 C 71 % 15 lf 1012,8 hPa 0,0 l/m 0 min 2 min 9 W/m 20,9 km/h (4 Bft) 97,87 %
28.07.2017 21:04 19,8 C 17,2 C 15,6 C 72 % 15 lf 1012,8 hPa 0,0 l/m 0 min 2 min 9 W/m 14,6 km/h (3 Bft) 91,49 %
28.07.2017 21:06 19,7 C 17,2 C 15,6 C 72 % 15 lf 1012,8 hPa 0,0 l/m 0 min 2 min 10 W/m 18,8 km/h (3 Bft) 95,74 %
28.07.2017 21:08 19,6 C 17,2 C 15,6 C 73 % 14 lf 1012,8 hPa 0,0 l/m 0 min 2 min 9 W/m 18,8 km/h (3 Bft) 100,00 %
28.07.2017 21:10 19,4 C 17,2 C 15,6 C 73 % 12 lf 1012,7 hPa 0,0 l/m 0 min 2 min 9 W/m 12,6 km/h (3 Bft) 97,83 %
28.07.2017 21:12 19,4 C 17,2 C 15,6 C 74 % 13 lf 1012,8 hPa 0,0 l/m 0 min 2 min 7 W/m 16,7 km/h (3 Bft) 91,49 %
28.07.2017 21:14 19,3 C 17,2 C 15,6 C 74 % 15 lf 1012,9 hPa 0,0 l/m 0 min 2 min 6 W/m 16,7 km/h (3 Bft) 95,74 %
28.07.2017 21:16 19,2 C 17,2 C 15,6 C 75 % 15 lf 1012,9 hPa 0,0 l/m 0 min 2 min 5 W/m 12,6 km/h (3 Bft) 95,74 %
28.07.2017 21:18 19,2 C 17,2 C 15,0 C 75 % 15 lf 1012,9 hPa 0,0 l/m 0 min 2 min 5 W/m 10,5 km/h (2 Bft) 93,62 %
28.07.2017 21:20 19,1 C 16,7 C 15,0 C 76 % 15 lf 1012,9 hPa 0,0 l/m 0 min 2 min 5 W/m 8,4 km/h (2 Bft) 95,74 %
28.07.2017 21:22 19,1 C 16,7 C 15,0 C 76 % 15 lf 1012,9 hPa 0,0 l/m 0 min 2 min 5 W/m 6,3 km/h (2 Bft) 95,65 %
28.07.2017 21:24 19,0 C 16,7 C 15,0 C 77 % 15 lf 1013,0 hPa 0,0 l/m 0 min 2 min 3 W/m 10,5 km/h (2 Bft) 95,74 %
28.07.2017 21:26 18,9 C 16,7 C 15,0 C 77 % 15 lf 1013,0 hPa 0,0 l/m 0 min 2 min 0 W/m 6,3 km/h (2 Bft) 93,62 %
28.07.2017 21:28 18,9 C 16,7 C 15,0 C 77 % 15 lf 1013,0 hPa 0,0 l/m 0 min 2 min 0 W/m 8,4 km/h (2 Bft) 93,62 %
28.07.2017 21:30 18,8 C 16,1 C 15,0 C 77 % 15 lf 1013,1 hPa 0,0 l/m 0 min 2 min 0 W/m 12,6 km/h (3 Bft) 95,74 %
28.07.2017 21:32 18,8 C 16,1 C 15,0 C 78 % 15 lf 1013,1 hPa 0,0 l/m 0 min 2 min 0 W/m 10,5 km/h (2 Bft) 93,62 %
28.07.2017 21:34 18,8 C 16,1 C 15,0 C 78 % 15 lf 1013,1 hPa 0,0 l/m 0 min 2 min 0 W/m 10,5 km/h (2 Bft) 95,65 %
28.07.2017 21:36 18,7 C 15,6 C 15,0 C 79 % 15 lf 1013,1 hPa 0,0 l/m 0 min 2 min 0 W/m 6,3 km/h (2 Bft) 95,74 %
28.07.2017 21:38 18,7 C 15,6 C 15,0 C 79 % 15 lf 1013,1 hPa 0,2 l/m 0 min 2 min 0 W/m 10,5 km/h (2 Bft) 95,74 %
28.07.2017 21:40 18,7 C 15,6 C 15,0 C 79 % 15 lf 1013,1 hPa 0,0 l/m 0 min 2 min 0 W/m 8,4 km/h (2 Bft) 95,74 %
28.07.2017 21:42 18,6 C 15,6 C 15,0 C 80 % 15 lf 1013,1 hPa 0,0 l/m 0 min 2 min 0 W/m 6,3 km/h (2 Bft) 95,74 %
28.07.2017 21:44 18,6 C 15,6 C 14,4 C 80 % 15 lf 1013,1 hPa 0,0 l/m 0 min 2 min 0 W/m 10,5 km/h (2 Bft) 93,48 %
28.07.2017 21:46 18,5 C 15,6 C 14,4 C 80 % 15 lf 1013,1 hPa 0,0 l/m 0 min 2 min 0 W/m 12,6 km/h (3 Bft) 97,87 %
28.07.2017 21:48 18,4 C 15,6 C 14,4 C 81 % 15 lf 1013,1 hPa 0,0 l/m 0 min 2 min 0 W/m 10,5 km/h (2 Bft) 97,87 %
28.07.2017 21:50 18,3 C 15,6 C 14,4 C 81 % 15 lf 1013,1 hPa 0,0 l/m 0 min 2 min 0 W/m 6,3 km/h (2 Bft) 97,87 %
28.07.2017 21:52 18,3 C 15,6 C 14,4 C 81 % 15 lf 1013,0 hPa 0,0 l/m 0 min 2 min 0 W/m 4,2 km/h (1 Bft) 95,12 %
28.07.2017 21:54 18,2 C 15,6 C 14,4 C 81 % 15 lf 1013,0 hPa 0,0 l/m 0 min 0 min 0 W/m 8,4 km/h (2 Bft) 95,74 %
28.07.2017 21:56 18,2 C 15,6 C 14,4 C 82 % 15 lf 1013,0 hPa 0,0 l/m 0 min 0 min 0 W/m 4,2 km/h (1 Bft) 93,62 %
28.07.2017 21:58 18,2 C 15,6 C 14,4 C 82 % 15 lf 1013,0 hPa 0,0 l/m 0 min 0 min 0 W/m 4,2 km/h (1 Bft) 93,62 %
28.07.2017 22:00 18,1 C 15,6 C 14,4 C 82 % 15 lf 1013,1 hPa 0,0 l/m 0 min 0 min 0 W/m 6,3 km/h (2 Bft) 95,92 %
28.07.2017 22:02 18,1 C 15,6 C 14,4 C 82 % 15 lf 1013,2 hPa 0,0 l/m 0 min 0 min 0 W/m 6,3 km/h (2 Bft) 91,49 %
28.07.2017 22:04 18,1 C 15,6 C 15,0 C 82 % 15 lf 1013,1 hPa 0,0 l/m 0 min 2 min 0 W/m 4,2 km/h (1 Bft) 93,62 %
28.07.2017 22:06 18,0 C 15,6 C 15,0 C 82 % 15 lf 1013,1 hPa 0,0 l/m 0 min 2 min 0 W/m 4,2 km/h (1 Bft) 93,62 %
28.07.2017 22:08 17,9 C 15,6 C 14,4 C 83 % 15 lf 1013,2 hPa 0,0 l/m 0 min 2 min 0 W/m 6,3 km/h (2 Bft) 91,49 %
28.07.2017 22:10 17,9 C 15,6 C 14,4 C 83 % 15 lf 1013,2 hPa 0,0 l/m 0 min 2 min 0 W/m 4,2 km/h (1 Bft) 95,65 %
28.07.2017 22:12 17,9 C 15,6 C 14,4 C 83 % 15 lf 1013,1 hPa 0,0 l/m 0 min 2 min 0 W/m 4,2 km/h (1 Bft) 89,36 %
28.07.2017 22:14 17,8 C 15,6 C 14,4 C 84 % 15 lf 1013,1 hPa 0,0 l/m 0 min 2 min 0 W/m 4,2 km/h (1 Bft) 95,74 %
28.07.2017 22:16 17,8 C 15,6 C 14,4 C 84 % 15 lf 1013,0 hPa 0,0 l/m 0 min 2 min 0 W/m 4,2 km/h (1 Bft) 93,62 %
28.07.2017 22:18 17,7 C 15,6 C 14,4 C 84 % 15 lf 1013,1 hPa 0,0 l/m 0 min 2 min 0 W/m 4,2 km/h (1 Bft) 93,62 %
28.07.2017 22:20 17,7 C 15,6 C 14,4 C 84 % 15 lf 1013,0 hPa 0,0 l/m 0 min 2 min 0 W/m 0,0 km/h (0 Bft) 95,74 %
28.07.2017 22:22 17,7 C 15,6 C 15,0 C 84 % 15 lf 1013,0 hPa 0,0 l/m 0 min 2 min 0 W/m 2,1 km/h (1 Bft) 95,65 %
28.07.2017 22:24 17,7 C 15,6 C 14,4 C 84 % 15 lf 1012,9 hPa 0,0 l/m 0 min 2 min 0 W/m 0,0 km/h (0 Bft) 95,74 %
28.07.2017 22:26 17,6 C 15,6 C 14,4 C 84 % 15 lf 1013,0 hPa 0,0 l/m 0 min 2 min 0 W/m 0,0 km/h (0 Bft) 93,62 %
28.07.2017 22:28 17,6 C 15,6 C 14,4 C 84 % 15 lf 1013,0 hPa 0,2 l/m 0 min 2 min 0 W/m 4,2 km/h (1 Bft) 95,74 %
28.07.2017 22:30 17,6 C 15,0 C 14,4 C 84 % 15 lf 1013,0 hPa 0,0 l/m 0 min 2 min 0 W/m 2,1 km/h (1 Bft) 97,87 %
28.07.2017 22:32 17,6 C 15,0 C 14,4 C 85 % 15 lf 1013,0 hPa 0,0 l/m 0 min 2 min 0 W/m 2,1 km/h (1 Bft) 95,74 %
28.07.2017 22:34 17,5 C 15,0 C 14,4 C 85 % 15 lf 1013,0 hPa 0,0 l/m 0 min 2 min 0 W/m 4,2 km/h (1 Bft) 97,83 %
28.07.2017 22:36 17,5 C 15,0 C 14,4 C 85 % 15 lf 1013,0 hPa 0,0 l/m 0 min 2 min 0 W/m 2,1 km/h (1 Bft) 91,49 %
28.07.2017 22:38 17,4 C 15,0 C 14,4 C 85 % 15 lf 1013,0 hPa 0,0 l/m 0 min 2 min 0 W/m 2,1 km/h (1 Bft) 97,87 %
28.07.2017 22:40 17,4 C 15,0 C 14,4 C 86 % 15 lf 1013,0 hPa 0,0 l/m 0 min 2 min 0 W/m 2,1 km/h (1 Bft) 95,74 %
28.07.2017 22:42 17,4 C 15,0 C 14,4 C 86 % 15 lf 1012,9 hPa 0,0 l/m 0 min 2 min 0 W/m 0,0 km/h (0 Bft) 95,74 %
28.07.2017 22:44 17,4 C 15,0 C 14,4 C 86 % 15 lf 1013,0 hPa 0,0 l/m 0 min 2 min 0 W/m 0,0 km/h (0 Bft) 97,87 %
28.07.2017 22:46 17,4 C 15,0 C 14,4 C 86 % 15 lf 1012,9 hPa 0,0 l/m 0 min 2 min 0 W/m 2,1 km/h (1 Bft) 93,48 %
28.07.2017 22:48 17,3 C 15,0 C 15,0 C 86 % 15 lf 1012,9 hPa 0,0 l/m 0 min 2 min 0 W/m 2,1 km/h (1 Bft) 95,74 %
28.07.2017 22:50 17,3 C 15,0 C 14,4 C 86 % 15 lf 1012,9 hPa 0,0 l/m 0 min 2 min 0 W/m 4,2 km/h (1 Bft) 93,62 %
28.07.2017 22:52 17,3 C 15,0 C 14,4 C 87 % 15 lf 1012,9 hPa 0,0 l/m 0 min 2 min 0 W/m 4,2 km/h (1 Bft) 95,74 %
28.07.2017 22:54 17,3 C 15,0 C 14,4 C 87 % 15 lf 1012,9 hPa 0,0 l/m 0 min 2 min 0 W/m 4,2 km/h (1 Bft) 97,87 %
28.07.2017 22:56 17,2 C 15,0 C 14,4 C 87 % 15 lf 1012,9 hPa 0,0 l/m 0 min 2 min 0 W/m 4,2 km/h (1 Bft) 100,00 %
28.07.2017 22:58 17,2 C 15,0 C 14,4 C 87 % 15 lf 1012,9 hPa 0,0 l/m 0 min 2 min 0 W/m 0,0 km/h (0 Bft) 97,83 %
28.07.2017 23:00 17,2 C 15,0 C 15,0 C 87 % 15 lf 1012,9 hPa 0,0 l/m 0 min 0 min 0 W/m 2,1 km/h (1 Bft) 100,00 %
28.07.2017 23:02 17,2 C 15,0 C 15,0 C 87 % 15 lf 1013,0 hPa 0,0 l/m 0 min 0 min 0 W/m 0,0 km/h (0 Bft) 97,87 %
28.07.2017 23:04 17,2 C 15,0 C 15,0 C 87 % 15 lf 1013,0 hPa 0,0 l/m 0 min 0 min 0 W/m 0,0 km/h (0 Bft) 97,87 %
28.07.2017 23:06 17,1 C 15,0 C 14,4 C 88 % 15 lf 1012,9 hPa 0,0 l/m 0 min 0 min 0 W/m 0,0 km/h (0 Bft) 100,00 %
28.07.2017 23:08 17,1 C 15,0 C 14,4 C 88 % 15 lf 1012,9 hPa 0,0 l/m 0 min 0 min 0 W/m 0,0 km/h (0 Bft) 95,74 %
28.07.2017 23:10 17,1 C 15,0 C 14,4 C 88 % 15 lf 1012,9 hPa 0,0 l/m 0 min 0 min 0 W/m 0,0 km/h (0 Bft) 97,83 %
28.07.2017 23:12 17,1 C 15,0 C 14,4 C 88 % 15 lf 1012,9 hPa 0,0 l/m 0 min 0 min 0 W/m 0,0 km/h (0 Bft) 100,00 %
28.07.2017 23:14 17,1 C 15,0 C 14,4 C 88 % 15 lf 1012,9 hPa 0,0 l/m 0 min 0 min 0 W/m 0,0 km/h (0 Bft) 97,87 %
28.07.2017 23:16 17,0 C 15,0 C 14,4 C 88 % 15 lf 1012,9 hPa 0,0 l/m 0 min 0 min 0 W/m 0,0 km/h (0 Bft) 100,00 %
28.07.2017 23:18 17,0 C 15,0 C 14,4 C 88 % 15 lf 1012,8 hPa 0,0 l/m 0 min 0 min 0 W/m 0,0 km/h (0 Bft) 100,00 %
28.07.2017 23:20 16,9 C 15,0 C 14,4 C 88 % 15 lf 1012,8 hPa 0,0 l/m 0 min 0 min 0 W/m 0,0 km/h (0 Bft) 100,00 %
28.07.2017 23:22 16,9 C 15,0 C 14,4 C 88 % 15 lf 1012,8 hPa 0,0 l/m 0 min 0 min 0 W/m 0,0 km/h (0 Bft) 97,83 %
28.07.2017 23:24 16,9 C 15,0 C 14,4 C 89 % 15 lf 1012,8 hPa 0,0 l/m 0 min 0 min 0 W/m 0,0 km/h (0 Bft) 100,00 %
28.07.2017 23:26 16,9 C 15,0 C 14,4 C 89 % 15 lf 1012,9 hPa 0,0 l/m 0 min 0 min 0 W/m 4,2 km/h (1 Bft) 97,87 %
28.07.2017 23:28 16,9 C 15,0 C 14,4 C 89 % 15 lf 1012,8 hPa 0,0 l/m 0 min 0 min 0 W/m 4,2 km/h (1 Bft) 100,00 %
28.07.2017 23:30 16,8 C 15,0 C 14,4 C 89 % 15 lf 1012,9 hPa 0,0 l/m 0 min 0 min 0 W/m 6,3 km/h (2 Bft) 100,00 %
28.07.2017 23:32 16,8 C 15,0 C 14,4 C 89 % 15 lf 1012,9 hPa 0,0 l/m 0 min 0 min 0 W/m 6,3 km/h (2 Bft) 97,87 %
28.07.2017 23:34 16,8 C 15,6 C 14,4 C 89 % 15 lf 1012,9 hPa 0,0 l/m 0 min 0 min 0 W/m 6,3 km/h (2 Bft) 100,00 %
28.07.2017 23:36 16,8 C 15,6 C 14,4 C 90 % 15 lf 1012,9 hPa 0,0 l/m 0 min 0 min 0 W/m 4,2 km/h (1 Bft) 100,00 %
28.07.2017 23:38 16,8 C 15,6 C 14,4 C 90 % 15 lf 1012,9 hPa 0,0 l/m 0 min 0 min 0 W/m 4,2 km/h (1 Bft) 100,00 %
28.07.2017 23:40 16,8 C 15,6 C 14,4 C 90 % 15 lf 1012,8 hPa 0,0 l/m 0 min 0 min 0 W/m 4,2 km/h (1 Bft) 97,87 %
28.07.2017 23:42 16,7 C 15,0 C 14,4 C 90 % 15 lf 1012,8 hPa 0,0 l/m 0 min 0 min 0 W/m 6,3 km/h (2 Bft) 97,87 %
28.07.2017 23:44 16,7 C 15,6 C 14,4 C 90 % 15 lf 1012,8 hPa 0,0 l/m 0 min 0 min 0 W/m 4,2 km/h (1 Bft) 97,83 %
28.07.2017 23:46 16,7 C 15,6 C 14,4 C 90 % 15 lf 1012,8 hPa 0,0 l/m 0 min 0 min 0 W/m 4,2 km/h (1 Bft) 97,87 %
28.07.2017 23:48 16,7 C 15,6 C 14,4 C 90 % 15 lf 1012,8 hPa 0,0 l/m 0 min 0 min 0 W/m 4,2 km/h (1 Bft) 93,62 %
28.07.2017 23:50 16,7 C 15,6 C 14,4 C 90 % 14 lf 1012,8 hPa 0,0 l/m 0 min 0 min 0 W/m 4,2 km/h (1 Bft) 95,74 %
28.07.2017 23:52 16,7 C 15,6 C 14,4 C 90 % 14 lf 1012,8 hPa 0,0 l/m 0 min 0 min 0 W/m 2,1 km/h (1 Bft) 95,74 %
28.07.2017 23:54 16,6 C 15,6 C 14,4 C 90 % 14 lf 1012,7 hPa 0,0 l/m 0 min 0 min 0 W/m 4,2 km/h (1 Bft) 93,62 %
28.07.2017 23:56 16,6 C 15,6 C 14,4 C 91 % 14 lf 1012,7 hPa 0,0 l/m 0 min 0 min 0 W/m 2,1 km/h (1 Bft) 95,65 %
28.07.2017 23:58 16,6 C 15,6 C 14,4 C 91 % 14 lf 1012,6 hPa 0,0 l/m 0 min 0 min 0 W/m 0,0 km/h (0 Bft) 91,49 %
_ Min-Zeit 06:28 04:08 02:56 16:40 00:00 00:00 - - - - 00:00 05:34
Minimum _ 13,7 C 13,3 C 12,2 C 57 % 0 lf 1007,1 hPa - - - - 0,0 km/h (0 Bft) 87,23 %
_ Max-Zeit 16:38 11:28 14:14 23:56 20:58 22:02 21:38 07:14 17:48 13:48 13:46 00:00
Maximum _ 23,0 C 28,3 C 28,3 C 91 % 15 lf 1013,2 hPa 0,2 l/m 4 min 2 min 1104 W/m 50,2 km/h
W (7 Bft)
100,00 %
Durchschnitt _ 18,2 C 19,1 C 17,9 C 76 % 2 lf 1010,6 hPa #0,4 l/m #8:44 h #2:12 h 285 W/m 19,2 km/h (3 Bft) 96,41 %
© 2017 W. Hausmann